Time,TemperatureF,DewpointF,PressureIn,WindDirection,WindDirectionDegrees,WindSpeedMPH,WindSpeedGustMPH,Humidity,HourlyPrecipIn,Conditions,Clouds,dailyrainin,SolarRadiationWatts/m^2,SoftwareType,DateUTC
2013-01-05 00:00:00,24.3,18.4,29.36,SSE,159,0.0,0.0,78,0.00,,CLR,0.00,0.00,VWS V14.01,2013-01-05 06:00:00,
2013-01-05 00:03:00,24.3,18.4,29.36,SSE,159,0.0,0.0,78,0.00,,CLR,0.00,0.00,VWS V14.01,2013-01-05 06:03:00,
2013-01-05 00:05:00,24.3,18.4,29.36,SSE,159,0.0,1.0,78,0.00,,CLR,0.00,0.00,VWS V14.01,2013-01-05 06:05:00,
2013-01-05 00:10:00,24.3,18.4,29.36,South,188,0.0,0.0,78,0.00,,CLR,0.00,0.00,VWS V14.01,2013-01-05 06:10:00,
2013-01-05 00:12:00,24.4,18.5,29.36,South,188,0.0,1.0,78,0.00,,CLR,0.00,0.00,VWS V14.01,2013-01-05 06:12:00,
2013-01-05 00:13:00,24.4,18.5,29.36,South,188,0.0,0.0,78,0.00,,CLR,0.00,0.00,VWS V14.01,2013-01-05 06:13:00,
2013-01-05 00:17:00,24.4,18.5,29.36,South,188,1.0,1.0,78,0.00,,CLR,0.00,0.00,VWS V14.01,2013-01-05 06:17:00,
2013-01-05 00:18:00,24.4,18.5,29.36,South,188,0.0,1.0,78,0.00,,CLR,0.00,0.00,VWS V14.01,2013-01-05 06:18:00,
2013-01-05 00:20:00,24.4,18.5,29.36,South,188,0.0,1.0,78,0.00,,CLR,0.00,0.00,VWS V14.01,2013-01-05 06:20:00,
2013-01-05 00:23:00,24.4,18.5,29.36,South,188,0.0,0.0,78,0.00,,CLR,0.00,0.00,VWS V14.01,2013-01-05 06:23:00,
2013-01-05 00:24:00,24.4,18.5,29.36,South,188,0.0,0.0,78,0.00,,CLR,0.00,0.00,VWS V14.01,2013-01-05 06:24:00,
2013-01-05 00:28:00,24.5,18.9,29.36,South,188,0.0,0.0,79,0.00,,CLR,0.00,0.00,VWS V14.01,2013-01-05 06:28:00,
2013-01-05 00:30:00,24.5,18.6,29.36,South,188,0.0,0.0,78,0.00,,CLR,0.00,0.00,VWS V14.01,2013-01-05 06:30:00,
2013-01-05 00:32:00,24.5,18.6,29.36,South,188,0.0,0.0,78,0.00,,CLR,0.00,0.00,VWS V14.01,2013-01-05 06:32:00,
2013-01-05 00:35:00,24.4,18.5,29.36,South,188,0.0,0.0,78,0.00,,CLR,0.00,0.00,VWS V14.01,2013-01-05 06:35:00,
2013-01-05 00:39:00,24.4,18.5,29.36,South,188,0.0,0.0,78,0.00,,CLR,0.00,0.00,VWS V14.01,2013-01-05 06:39:00,
2013-01-05 00:43:00,24.3,18.4,29.36,South,188,0.0,0.0,78,0.00,,CLR,0.00,0.00,VWS V14.01,2013-01-05 06:43:00,
2013-01-05 00:44:00,24.3,18.4,29.36,South,188,0.0,0.0,78,0.00,,CLR,0.00,0.00,VWS V14.01,2013-01-05 06:44:00,
2013-01-05 00:46:00,24.2,18.3,29.36,South,188,0.0,1.0,78,0.00,,CLR,0.00,0.00,VWS V14.01,2013-01-05 06:46:00,
2013-01-05 00:49:00,24.2,18.3,29.36,South,188,0.0,0.0,78,0.00,,CLR,0.00,0.00,VWS V14.01,2013-01-05 06:49:00,
2013-01-05 00:50:00,24.1,18.2,29.36,South,188,0.0,0.0,78,0.00,,CLR,0.00,0.00,VWS V14.01,2013-01-05 06:50:00,
2013-01-05 00:52:00,24.1,18.2,29.36,South,188,0.0,0.0,78,0.00,,CLR,0.00,0.00,VWS V14.01,2013-01-05 06:52:00,
2013-01-05 00:54:00,24.1,18.2,29.36,South,188,0.0,0.0,78,0.00,,CLR,0.00,0.00,VWS V14.01,2013-01-05 06:54:00,
2013-01-05 00:56:00,24.0,18.1,29.36,South,188,0.0,0.0,78,0.00,,CLR,0.00,0.00,VWS V14.01,2013-01-05 06:56:00,
2013-01-05 01:00:00,24.0,18.5,29.36,South,188,1.0,1.0,79,0.00,,CLR,0.00,0.00,VWS V14.01,2013-01-05 07:00:00,
2013-01-05 01:01:00,24.0,18.1,29.36,South,188,0.0,1.0,78,0.00,,CLR,0.00,0.00,VWS V14.01,2013-01-05 07:01:00,
2013-01-05 01:06:00,24.0,18.5,29.35,South,188,0.0,0.0,79,0.00,,CLR,0.00,0.00,VWS V14.01,2013-01-05 07:06:00,
2013-01-05 01:07:00,24.0,18.5,29.35,South,188,0.0,0.0,79,0.00,,CLR,0.00,0.00,VWS V14.01,2013-01-05 07:07:00,
2013-01-05 01:12:00,24.0,18.5,29.35,South,188,0.0,0.0,79,0.00,,CLR,0.00,0.00,VWS V14.01,2013-01-05 07:12:00,
2013-01-05 01:15:00,24.0,18.5,29.35,South,188,1.0,1.0,79,0.00,,CLR,0.00,0.00,VWS V14.01,2013-01-05 07:15:00,
2013-01-05 01:16:00,24.0,18.5,29.36,South,188,0.0,1.0,79,0.00,,CLR,0.00,0.00,VWS V14.01,2013-01-05 07:16:00,
2013-01-05 01:18:00,24.0,18.5,29.36,South,188,0.0,0.0,79,0.00,,CLR,0.00,0.00,VWS V14.01,2013-01-05 07:18:00,
2013-01-05 01:19:00,24.0,18.5,29.36,South,188,0.0,1.0,79,0.00,,CLR,0.00,0.00,VWS V14.01,2013-01-05 07:19:00,
2013-01-05 01:21:00,24.0,18.1,29.36,South,188,0.0,0.0,78,0.00,,CLR,0.00,0.00,VWS V14.01,2013-01-05 07:21:00,
2013-01-05 01:24:00,23.9,18.0,29.36,South,188,0.0,0.0,78,0.00,,CLR,0.00,0.00,VWS V14.01,2013-01-05 07:24:00,
2013-01-05 01:27:00,23.9,18.0,29.36,South,188,0.0,0.0,78,0.00,,CLR,0.00,0.00,VWS V14.01,2013-01-05 07:27:00,
2013-01-05 01:29:00,23.8,18.0,29.36,South,188,0.0,0.0,78,0.00,,CLR,0.00,0.00,VWS V14.01,2013-01-05 07:29:00,
2013-01-05 01:32:00,23.8,18.2,29.36,South,188,0.0,0.0,79,0.00,,CLR,0.00,0.00,VWS V14.01,2013-01-05 07:32:00,
2013-01-05 01:34:00,23.8,18.2,29.36,South,188,0.0,0.0,79,0.00,,CLR,0.00,0.00,VWS V14.01,2013-01-05 07:34:00,
2013-01-05 01:36:00,23.8,18.2,29.36,South,188,0.0,0.0,79,0.00,,CLR,0.00,0.00,VWS V14.01,2013-01-05 07:36:00,
2013-01-05 01:39:00,23.8,18.2,29.36,South,188,1.0,2.0,79,0.00,,CLR,0.00,0.00,VWS V14.01,2013-01-05 07:39:00,
2013-01-05 01:41:00,23.9,18.4,29.36,South,188,0.0,1.0,79,0.00,,CLR,0.00,0.00,VWS V14.01,2013-01-05 07:41:00,
2013-01-05 01:43:00,23.9,18.4,29.36,South,188,0.0,1.0,79,0.00,,CLR,0.00,0.00,VWS V14.01,2013-01-05 07:43:00,
2013-01-05 01:46:00,23.9,18.4,29.36,South,188,0.0,0.0,79,0.00,,CLR,0.00,0.00,VWS V14.01,2013-01-05 07:46:00,
2013-01-05 01:47:00,23.9,18.4,29.36,South,188,0.0,0.0,79,0.00,,CLR,0.00,0.00,VWS V14.01,2013-01-05 07:47:00,
2013-01-05 01:48:00,23.9,18.4,29.36,South,188,0.0,0.0,79,0.00,,CLR,0.00,0.00,VWS V14.01,2013-01-05 07:48:00,
2013-01-05 01:53:00,23.8,18.0,29.36,South,188,0.0,0.0,78,0.00,,CLR,0.00,0.00,VWS V14.01,2013-01-05 07:53:00,
2013-01-05 01:54:00,23.8,18.0,29.36,South,188,0.0,0.0,78,0.00,,CLR,0.00,0.00,VWS V14.01,2013-01-05 07:54:00,
2013-01-05 01:59:00,23.6,17.8,29.36,South,188,0.0,0.0,78,0.00,,CLR,0.00,0.00,VWS V14.01,2013-01-05 07:59:00,
2013-01-05 02:02:00,23.6,17.8,29.36,South,188,0.0,0.0,78,0.00,,CLR,0.00,0.00,VWS V14.01,2013-01-05 08:02:00,
2013-01-05 02:03:00,23.5,18.0,29.36,South,188,0.0,0.0,79,0.00,,CLR,0.00,0.00,VWS V14.01,2013-01-05 08:03:00,
2013-01-05 02:05:00,23.5,18.0,29.36,South,188,0.0,1.0,79,0.00,,CLR,0.00,0.00,VWS V14.01,2013-01-05 08:05:00,
2013-01-05 02:08:00,23.4,17.9,29.36,South,188,0.0,0.0,79,0.00,,CLR,0.00,0.00,VWS V14.01,2013-01-05 08:08:00,
2013-01-05 02:10:00,23.4,17.9,29.36,South,188,0.0,0.0,79,0.00,,CLR,0.00,0.00,VWS V14.01,2013-01-05 08:10:00,
2013-01-05 02:11:00,23.4,17.9,29.36,South,188,0.0,0.0,79,0.00,,CLR,0.00,0.00,VWS V14.01,2013-01-05 08:11:00,
2013-01-05 02:12:00,23.4,17.9,29.36,South,188,0.0,0.0,79,0.00,,CLR,0.00,0.00,VWS V14.01,2013-01-05 08:12:00,
2013-01-05 02:16:00,23.3,17.8,29.36,South,188,0.0,0.0,79,0.00,,CLR,0.00,0.00,VWS V14.01,2013-01-05 08:16:00,
2013-01-05 02:17:00,23.3,17.8,29.36,South,188,0.0,0.0,79,0.00,,CLR,0.00,0.00,VWS V14.01,2013-01-05 08:17:00,
2013-01-05 02:18:00,23.2,17.7,29.36,South,188,0.0,0.0,79,0.00,,CLR,0.00,0.00,VWS V14.01,2013-01-05 08:18:00,
2013-01-05 02:21:00,23.1,17.6,29.36,South,188,0.0,0.0,79,0.00,,CLR,0.00,0.00,VWS V14.01,2013-01-05 08:21:00,
2013-01-05 02:22:00,23.1,17.6,29.36,South,188,0.0,0.0,79,0.00,,CLR,0.00,0.00,VWS V14.01,2013-01-05 08:22:00,
2013-01-05 02:23:00,23.1,17.6,29.36,South,188,0.0,0.0,79,0.00,,CLR,0.00,0.00,VWS V14.01,2013-01-05 08:23:00,
2013-01-05 02:27:00,23.0,17.5,29.36,South,188,0.0,0.0,79,0.00,,CLR,0.00,0.00,VWS V14.01,2013-01-05 08:27:00,
2013-01-05 02:29:00,22.9,17.4,29.36,South,188,0.0,0.0,79,0.00,,CLR,0.00,0.00,VWS V14.01,2013-01-05 08:29:00,
2013-01-05 02:30:00,22.9,17.4,29.36,South,188,0.0,0.0,79,0.00,,CLR,0.00,0.00,VWS V14.01,2013-01-05 08:30:00,
2013-01-05 02:33:00,22.9,17.4,29.36,South,188,0.0,0.0,79,0.00,,CLR,0.00,0.00,VWS V14.01,2013-01-05 08:33:00,
2013-01-05 02:34:00,22.9,17.4,29.35,South,188,0.0,0.0,79,0.00,,CLR,0.00,0.00,VWS V14.01,2013-01-05 08:34:00,
2013-01-05 02:36:00,22.8,17.3,29.36,South,188,0.0,0.0,79,0.00,,CLR,0.00,0.00,VWS V14.01,2013-01-05 08:36:00,
2013-01-05 02:38:00,22.8,17.3,29.35,South,188,0.0,0.0,79,0.00,,CLR,0.00,0.00,VWS V14.01,2013-01-05 08:38:00,
2013-01-05 02:39:00,22.8,17.3,29.36,South,188,0.0,0.0,79,0.00,,CLR,0.00,0.00,VWS V14.01,2013-01-05 08:39:00,
2013-01-05 02:42:00,22.8,17.3,29.36,South,188,0.0,0.0,79,0.00,,CLR,0.00,0.00,VWS V14.01,2013-01-05 08:42:00,
2013-01-05 02:43:00,22.8,17.3,29.36,South,188,0.0,0.0,79,0.00,,CLR,0.00,0.00,VWS V14.01,2013-01-05 08:43:00,
2013-01-05 02:47:00,22.7,17.5,29.36,South,188,0.0,0.0,80,0.00,,CLR,0.00,0.00,VWS V14.01,2013-01-05 08:47:00,
2013-01-05 02:49:00,22.7,17.5,29.36,South,188,0.0,0.0,80,0.00,,CLR,0.00,0.00,VWS V14.01,2013-01-05 08:49:00,
2013-01-05 02:53:00,22.7,17.5,29.36,South,188,0.0,0.0,80,0.00,,CLR,0.00,0.00,VWS V14.01,2013-01-05 08:53:00,
2013-01-05 02:54:00,22.7,17.5,29.36,South,188,0.0,0.0,80,0.00,,CLR,0.00,0.00,VWS V14.01,2013-01-05 08:54:00,
2013-01-05 02:57:00,22.8,17.6,29.36,South,188,0.0,0.0,80,0.00,,CLR,0.00,0.00,VWS V14.01,2013-01-05 08:57:00,
2013-01-05 02:59:00,22.8,17.6,29.36,East,98,0.0,2.0,80,0.00,,CLR,0.00,0.00,VWS V14.01,2013-01-05 08:59:00,
2013-01-05 03:01:00,22.9,17.7,29.36,SE,138,1.0,1.0,80,0.00,,CLR,0.00,0.00,VWS V14.01,2013-01-05 09:01:00,
2013-01-05 03:02:00,23.0,17.8,29.36,SE,137,0.0,1.0,80,0.00,,CLR,0.00,0.00,VWS V14.01,2013-01-05 09:02:00,
2013-01-05 03:03:00,23.1,18.1,29.36,SE,137,0.0,2.0,81,0.00,,CLR,0.00,0.00,VWS V14.01,2013-01-05 09:03:00,
2013-01-05 03:05:00,23.3,18.3,29.36,WSW,240,1.0,4.0,81,0.00,,CLR,0.00,0.00,VWS V14.01,2013-01-05 09:05:00,
2013-01-05 03:09:00,23.6,18.4,29.36,WSW,240,0.0,1.0,80,0.00,,CLR,0.00,0.00,VWS V14.01,2013-01-05 09:09:00,
2013-01-05 03:10:00,23.7,18.5,29.36,WSW,240,0.0,0.0,80,0.00,,CLR,0.00,0.00,VWS V14.01,2013-01-05 09:10:00,
2013-01-05 03:11:00,23.8,18.5,29.35,WSW,240,0.0,1.0,80,0.00,,CLR,0.00,0.00,VWS V14.01,2013-01-05 09:11:00,
2013-01-05 03:16:00,24.0,18.5,29.35,WSW,240,0.0,0.0,79,0.00,,CLR,0.00,0.00,VWS V14.01,2013-01-05 09:16:00,
2013-01-05 03:17:00,24.0,18.5,29.35,WSW,240,0.0,0.0,79,0.00,,CLR,0.00,0.00,VWS V14.01,2013-01-05 09:17:00,
2013-01-05 03:18:00,24.0,18.5,29.35,WSW,240,0.0,0.0,79,0.00,,CLR,0.00,0.00,VWS V14.01,2013-01-05 09:18:00,
2013-01-05 03:22:00,24.0,18.5,29.35,WSW,240,0.0,1.0,79,0.00,,CLR,0.00,0.00,VWS V14.01,2013-01-05 09:22:00,
2013-01-05 03:23:00,24.0,18.5,29.35,WSW,240,0.0,0.0,79,0.00,,CLR,0.00,0.00,VWS V14.01,2013-01-05 09:23:00,
2013-01-05 03:24:00,24.0,18.5,29.35,WSW,240,0.0,0.0,79,0.00,,CLR,0.00,0.00,VWS V14.01,2013-01-05 09:24:00,
2013-01-05 03:25:00,24.0,18.5,29.35,WSW,240,0.0,0.0,79,0.00,,CLR,0.00,0.00,VWS V14.01,2013-01-05 09:25:00,
2013-01-05 03:29:00,23.9,18.0,29.35,WSW,240,0.0,0.0,78,0.00,,CLR,0.00,0.00,VWS V14.01,2013-01-05 09:29:00,
2013-01-05 03:30:00,23.9,18.0,29.35,WSW,240,0.0,0.0,78,0.00,,CLR,0.00,0.00,VWS V14.01,2013-01-05 09:30:00,
2013-01-05 03:33:00,23.8,18.0,29.35,WSW,240,0.0,0.0,78,0.00,,CLR,0.00,0.00,VWS V14.01,2013-01-05 09:33:00,
2013-01-05 03:35:00,23.8,18.0,29.35,WSW,240,0.0,0.0,78,0.00,,CLR,0.00,0.00,VWS V14.01,2013-01-05 09:35:00,
2013-01-05 03:36:00,23.8,18.0,29.35,WSW,240,0.0,0.0,78,0.00,,CLR,0.00,0.00,VWS V14.01,2013-01-05 09:36:00,
2013-01-05 03:38:00,23.8,18.0,29.35,WSW,240,0.0,0.0,78,0.00,,CLR,0.00,0.00,VWS V14.01,2013-01-05 09:38:00,
2013-01-05 03:40:00,23.7,17.9,29.35,WSW,240,0.0,1.0,78,0.00,,CLR,0.00,0.00,VWS V14.01,2013-01-05 09:40:00,
2013-01-05 03:41:00,23.7,17.9,29.35,WSW,240,0.0,0.0,78,0.00,,CLR,0.00,0.00,VWS V14.01,2013-01-05 09:41:00,
2013-01-05 03:43:00,23.6,17.8,29.35,WSW,240,0.0,0.0,78,0.00,,CLR,0.00,0.00,VWS V14.01,2013-01-05 09:43:00,
2013-01-05 03:46:00,23.6,17.8,29.35,WSW,240,0.0,1.0,78,0.00,,CLR,0.00,0.00,VWS V14.01,2013-01-05 09:46:00,
2013-01-05 03:48:00,23.6,17.8,29.35,WSW,240,1.0,1.0,78,0.00,,CLR,0.00,0.00,VWS V14.01,2013-01-05 09:48:00,
2013-01-05 03:49:00,23.5,17.7,29.35,WSW,240,0.0,1.0,78,0.00,,CLR,0.00,0.00,VWS V14.01,2013-01-05 09:49:00,
2013-01-05 03:51:00,23.5,17.7,29.35,WSW,240,0.0,0.0,78,0.00,,CLR,0.00,0.00,VWS V14.01,2013-01-05 09:51:00,
2013-01-05 03:53:00,23.5,17.7,29.35,WSW,240,0.0,0.0,78,0.00,,CLR,0.00,0.00,VWS V14.01,2013-01-05 09:53:00,
2013-01-05 03:55:00,23.4,17.6,29.35,WSW,240,0.0,0.0,78,0.00,,CLR,0.00,0.00,VWS V14.01,2013-01-05 09:55:00,
2013-01-05 03:58:00,23.4,17.6,29.35,WSW,240,0.0,0.0,78,0.00,,CLR,0.00,0.00,VWS V14.01,2013-01-05 09:58:00,
2013-01-05 04:00:00,23.3,17.8,29.35,WSW,240,0.0,0.0,79,0.00,,CLR,0.00,0.00,VWS V14.01,2013-01-05 10:00:00,
2013-01-05 04:01:00,23.4,17.9,29.35,WSW,240,0.0,0.0,79,0.00,,CLR,0.00,0.00,VWS V14.01,2013-01-05 10:01:00,
2013-01-05 04:02:00,23.3,17.8,29.35,ESE,104,0.0,1.0,79,0.00,,CLR,0.00,0.00,VWS V14.01,2013-01-05 10:02:00,
2013-01-05 04:03:00,23.3,17.8,29.35,ESE,104,0.0,0.0,79,0.00,,CLR,0.00,0.00,VWS V14.01,2013-01-05 10:03:00,
2013-01-05 04:07:00,23.3,17.8,29.35,SE,132,0.0,0.0,79,0.00,,CLR,0.00,0.00,VWS V14.01,2013-01-05 10:07:00,
2013-01-05 04:08:00,23.2,17.7,29.35,SE,132,0.0,0.0,79,0.00,,CLR,0.00,0.00,VWS V14.01,2013-01-05 10:08:00,
2013-01-05 04:10:00,23.2,17.7,29.35,SE,132,0.0,0.0,79,0.00,,CLR,0.00,0.00,VWS V14.01,2013-01-05 10:10:00,
2013-01-05 04:14:00,23.1,17.6,29.35,SE,132,0.0,0.0,79,0.00,,CLR,0.00,0.00,VWS V14.01,2013-01-05 10:14:00,
2013-01-05 04:15:00,23.1,17.6,29.35,SE,132,0.0,0.0,79,0.00,,CLR,0.00,0.00,VWS V14.01,2013-01-05 10:15:00,
2013-01-05 04:16:00,23.1,17.6,29.34,SE,132,0.0,1.0,79,0.00,,CLR,0.00,0.00,VWS V14.01,2013-01-05 10:16:00,
2013-01-05 04:18:00,23.1,17.6,29.35,SE,132,0.0,1.0,79,0.00,,CLR,0.00,0.00,VWS V14.01,2013-01-05 10:18:00,
2013-01-05 04:19:00,23.1,17.6,29.35,SE,132,0.0,0.0,79,0.00,,CLR,0.00,0.00,VWS V14.01,2013-01-05 10:19:00,
2013-01-05 04:20:00,23.1,17.6,29.34,SE,132,0.0,1.0,79,0.00,,CLR,0.00,0.00,VWS V14.01,2013-01-05 10:20:00,
2013-01-05 04:22:00,23.0,17.5,29.34,SE,132,0.0,0.0,79,0.00,,CLR,0.00,0.00,VWS V14.01,2013-01-05 10:22:00,
2013-01-05 04:26:00,23.0,17.5,29.34,SW,228,0.0,0.0,79,0.00,,CLR,0.00,0.00,VWS V14.01,2013-01-05 10:26:00,
2013-01-05 04:28:00,23.0,19.5,29.34,SW,228,0.0,0.0,86,0.00,,CLR,0.00,0.00,VWS V14.01,2013-01-05 10:28:00,
2013-01-05 04:31:00,23.0,19.5,29.34,SW,227,0.0,0.0,86,0.00,,CLR,0.00,0.00,VWS V14.01,2013-01-05 10:31:00,
2013-01-05 04:32:00,23.0,19.5,29.34,SW,227,0.0,0.0,86,0.00,,CLR,0.00,0.00,VWS V14.01,2013-01-05 10:32:00,
2013-01-05 04:34:00,23.0,19.5,29.34,SW,228,0.0,0.0,86,0.00,,CLR,0.00,0.00,VWS V14.01,2013-01-05 10:34:00,
2013-01-05 04:36:00,23.0,17.5,29.34,SW,228,1.0,2.0,79,0.00,,CLR,0.00,0.00,VWS V14.01,2013-01-05 10:36:00,
2013-01-05 04:38:00,23.1,17.9,29.34,SW,228,0.0,0.0,80,0.00,,CLR,0.00,0.00,VWS V14.01,2013-01-05 10:38:00,
2013-01-05 04:40:00,23.2,18.0,29.34,East,88,0.0,1.0,80,0.00,,CLR,0.00,0.00,VWS V14.01,2013-01-05 10:40:00,
2013-01-05 04:42:00,23.4,18.1,29.34,East,88,0.0,1.0,80,0.00,,CLR,0.00,0.00,VWS V14.01,2013-01-05 10:42:00,
2013-01-05 04:43:00,23.4,18.1,29.34,East,88,0.0,0.0,80,0.00,,CLR,0.00,0.00,VWS V14.01,2013-01-05 10:43:00,
2013-01-05 04:45:00,23.6,18.4,29.34,East,88,0.0,0.0,80,0.00,,CLR,0.00,0.00,VWS V14.01,2013-01-05 10:45:00,
2013-01-05 04:48:00,23.7,18.1,29.34,East,88,0.0,1.0,79,0.00,,CLR,0.00,0.00,VWS V14.01,2013-01-05 10:48:00,
2013-01-05 04:51:00,23.8,18.2,29.34,East,87,1.0,1.0,79,0.00,,CLR,0.00,0.00,VWS V14.01,2013-01-05 10:51:00,
2013-01-05 04:54:00,23.8,18.2,29.34,East,88,0.0,0.0,79,0.00,,CLR,0.00,0.00,VWS V14.01,2013-01-05 10:54:00,
2013-01-05 04:55:00,23.8,18.2,29.34,East,88,0.0,0.0,79,0.00,,CLR,0.00,0.00,VWS V14.01,2013-01-05 10:55:00,
2013-01-05 04:56:00,23.8,18.2,29.33,East,88,0.0,0.0,79,0.00,,CLR,0.00,0.00,VWS V14.01,2013-01-05 10:56:00,
2013-01-05 04:58:00,23.8,18.2,29.33,East,88,0.0,0.0,79,0.00,,CLR,0.00,0.00,VWS V14.01,2013-01-05 10:58:00,
2013-01-05 05:01:00,23.7,18.1,29.33,East,88,0.0,0.0,79,0.00,,CLR,0.00,0.00,VWS V14.01,2013-01-05 11:01:00,
2013-01-05 05:03:00,23.6,18.1,29.33,East,87,0.0,0.0,79,0.00,,CLR,0.00,0.00,VWS V14.01,2013-01-05 11:03:00,
2013-01-05 05:04:00,23.6,18.1,29.33,East,87,0.0,0.0,79,0.00,,CLR,0.00,0.00,VWS V14.01,2013-01-05 11:04:00,
2013-01-05 05:06:00,23.5,18.0,29.33,East,87,0.0,2.0,79,0.00,,CLR,0.00,0.00,VWS V14.01,2013-01-05 11:06:00,
2013-01-05 05:08:00,23.5,18.0,29.33,East,88,0.0,0.0,79,0.00,,CLR,0.00,0.00,VWS V14.01,2013-01-05 11:08:00,
2013-01-05 05:10:00,23.4,17.9,29.33,East,87,0.0,0.0,79,0.00,,CLR,0.00,0.00,VWS V14.01,2013-01-05 11:10:00,
2013-01-05 05:11:00,23.4,17.9,29.33,East,87,0.0,1.0,79,0.00,,CLR,0.00,0.00,VWS V14.01,2013-01-05 11:11:00,
2013-01-05 05:16:00,23.4,17.9,29.33,East,88,0.0,0.0,79,0.00,,CLR,0.00,0.00,VWS V14.01,2013-01-05 11:16:00,
2013-01-05 05:18:00,23.3,17.8,29.33,East,87,0.0,0.0,79,0.00,,CLR,0.00,0.00,VWS V14.01,2013-01-05 11:18:00,
2013-01-05 05:22:00,23.3,17.8,29.33,East,88,0.0,0.0,79,0.00,,CLR,0.00,0.00,VWS V14.01,2013-01-05 11:22:00,
2013-01-05 05:23:00,23.3,17.8,29.33,East,88,0.0,0.0,79,0.00,,CLR,0.00,0.00,VWS V14.01,2013-01-05 11:23:00,
2013-01-05 05:25:00,23.3,17.8,29.33,East,87,0.0,0.0,79,0.00,,CLR,0.00,0.00,VWS V14.01,2013-01-05 11:25:00,
2013-01-05 05:27:00,23.3,17.8,29.33,East,88,0.0,0.0,79,0.00,,CLR,0.00,0.00,VWS V14.01,2013-01-05 11:27:00,
2013-01-05 05:28:00,23.3,17.8,29.33,East,88,0.0,1.0,79,0.00,,CLR,0.00,0.00,VWS V14.01,2013-01-05 11:28:00,
2013-01-05 05:31:00,23.3,17.8,29.33,East,88,0.0,0.0,79,0.00,,CLR,0.00,0.00,VWS V14.01,2013-01-05 11:31:00,
2013-01-05 05:33:00,23.2,17.7,29.33,East,88,0.0,0.0,79,0.00,,CLR,0.00,0.00,VWS V14.01,2013-01-05 11:33:00,
2013-01-05 05:34:00,23.2,17.7,29.33,East,87,0.0,1.0,79,0.00,,CLR,0.00,0.00,VWS V14.01,2013-01-05 11:34:00,
2013-01-05 05:37:00,23.1,17.6,29.33,East,88,0.0,0.0,79,0.00,,CLR,0.00,0.00,VWS V14.01,2013-01-05 11:37:00,
2013-01-05 05:38:00,23.1,17.6,29.33,East,88,0.0,0.0,79,0.00,,CLR,0.00,0.00,VWS V14.01,2013-01-05 11:38:00,
2013-01-05 05:41:00,23.0,17.5,29.33,East,87,0.0,0.0,79,0.00,,CLR,0.00,0.00,VWS V14.01,2013-01-05 11:41:00,
2013-01-05 05:44:00,23.0,17.5,29.33,East,88,0.0,0.0,79,0.00,,CLR,0.00,0.00,VWS V14.01,2013-01-05 11:44:00,
2013-01-05 05:45:00,23.0,17.5,29.33,East,87,0.0,0.0,79,0.00,,CLR,0.00,0.00,VWS V14.01,2013-01-05 11:45:00,
2013-01-05 05:46:00,22.9,17.4,29.33,East,87,0.0,1.0,79,0.00,,CLR,0.00,0.00,VWS V14.01,2013-01-05 11:46:00,
2013-01-05 05:47:00,22.9,17.4,29.33,East,88,0.0,0.0,79,0.00,,CLR,0.00,0.00,VWS V14.01,2013-01-05 11:47:00,
2013-01-05 05:49:00,22.9,17.4,29.33,East,88,0.0,0.0,79,0.00,,CLR,0.00,0.00,VWS V14.01,2013-01-05 11:49:00,
2013-01-05 05:51:00,22.9,17.7,29.33,East,87,0.0,0.0,80,0.00,,CLR,0.00,0.00,VWS V14.01,2013-01-05 11:51:00,
2013-01-05 05:54:00,22.9,17.7,29.33,East,88,0.0,0.0,80,0.00,,CLR,0.00,0.00,VWS V14.01,2013-01-05 11:54:00,
2013-01-05 05:56:00,22.9,17.7,29.33,East,88,0.0,0.0,80,0.00,,CLR,0.00,0.00,VWS V14.01,2013-01-05 11:56:00,
2013-01-05 05:58:00,22.9,17.7,29.33,East,88,0.0,1.0,80,0.00,,CLR,0.00,0.00,VWS V14.01,2013-01-05 11:58:00,
2013-01-05 06:01:00,22.8,17.6,29.33,East,88,0.0,0.0,80,0.00,,CLR,0.00,0.00,VWS V14.01,2013-01-05 12:01:00,
2013-01-05 06:04:00,22.8,17.6,29.33,East,88,0.0,0.0,80,0.00,,CLR,0.00,0.00,VWS V14.01,2013-01-05 12:04:00,
2013-01-05 06:06:00,22.7,17.5,29.33,East,88,0.0,0.0,80,0.00,,CLR,0.00,0.00,VWS V14.01,2013-01-05 12:06:00,
2013-01-05 06:07:00,22.6,17.4,29.33,East,88,0.0,0.0,80,0.00,,CLR,0.00,0.00,VWS V14.01,2013-01-05 12:07:00,
2013-01-05 06:10:00,22.6,17.4,29.33,East,88,0.0,0.0,80,0.00,,CLR,0.00,0.00,VWS V14.01,2013-01-05 12:10:00,
2013-01-05 06:13:00,22.5,17.3,29.33,East,88,0.0,0.0,80,0.00,,CLR,0.00,0.00,VWS V14.01,2013-01-05 12:13:00,
2013-01-05 06:15:00,22.5,17.3,29.33,East,87,0.0,0.0,80,0.00,,CLR,0.00,0.00,VWS V14.01,2013-01-05 12:15:00,
2013-01-05 06:16:00,22.4,17.2,29.33,East,88,0.0,0.0,80,0.00,,CLR,0.00,0.00,VWS V14.01,2013-01-05 12:16:00,
2013-01-05 06:18:00,22.4,17.2,29.33,East,88,0.0,0.0,80,0.00,,CLR,0.00,0.00,VWS V14.01,2013-01-05 12:18:00,
2013-01-05 06:19:00,22.3,17.1,29.33,East,88,0.0,0.0,80,0.00,,CLR,0.00,0.00,VWS V14.01,2013-01-05 12:19:00,
2013-01-05 06:23:00,22.2,17.0,29.33,East,88,0.0,0.0,80,0.00,,CLR,0.00,0.00,VWS V14.01,2013-01-05 12:23:00,
2013-01-05 06:24:00,22.2,17.0,29.33,East,88,0.0,0.0,80,0.00,,CLR,0.00,0.00,VWS V14.01,2013-01-05 12:24:00,
2013-01-05 06:25:00,22.1,16.9,29.34,East,88,0.0,0.0,80,0.00,,CLR,0.00,0.00,VWS V14.01,2013-01-05 12:25:00,
2013-01-05 06:28:00,22.1,16.9,29.34,East,88,0.0,1.0,80,0.00,,CLR,0.00,0.00,VWS V14.01,2013-01-05 12:28:00,
2013-01-05 06:30:00,22.0,16.8,29.34,East,88,0.0,0.0,80,0.00,,CLR,0.00,0.00,VWS V14.01,2013-01-05 12:30:00,
2013-01-05 06:31:00,22.0,16.8,29.34,East,88,0.0,0.0,80,0.00,,CLR,0.00,0.00,VWS V14.01,2013-01-05 12:31:00,
2013-01-05 06:36:00,22.1,17.2,29.34,East,88,0.0,0.0,81,0.00,,CLR,0.00,0.00,VWS V14.01,2013-01-05 12:36:00,
2013-01-05 06:37:00,22.1,17.2,29.34,East,88,0.0,1.0,81,0.00,,CLR,0.00,0.00,VWS V14.01,2013-01-05 12:37:00,
2013-01-05 06:38:00,22.1,17.2,29.34,East,88,0.0,1.0,81,0.00,,CLR,0.00,0.00,VWS V14.01,2013-01-05 12:38:00,
2013-01-05 06:41:00,22.1,17.2,29.34,East,88,0.0,1.0,81,0.00,,CLR,0.00,0.00,VWS V14.01,2013-01-05 12:41:00,
2013-01-05 06:43:00,22.2,17.3,29.34,East,88,0.0,0.0,81,0.00,,CLR,0.00,0.00,VWS V14.01,2013-01-05 12:43:00,
2013-01-05 06:44:00,22.2,17.3,29.34,East,88,0.0,0.0,81,0.00,,CLR,0.00,0.00,VWS V14.01,2013-01-05 12:44:00,
2013-01-05 06:45:00,22.2,17.3,29.34,East,87,0.0,0.0,81,0.00,,CLR,0.00,0.00,VWS V14.01,2013-01-05 12:45:00,
2013-01-05 06:46:00,22.3,17.4,29.34,East,87,0.0,1.0,81,0.00,,CLR,0.00,0.00,VWS V14.01,2013-01-05 12:46:00,
2013-01-05 06:48:00,22.4,17.5,29.33,East,87,0.0,0.0,81,0.00,,CLR,0.00,0.00,VWS V14.01,2013-01-05 12:48:00,
2013-01-05 06:51:00,22.4,17.5,29.33,South,182,1.0,1.0,81,0.00,,CLR,0.00,0.00,VWS V14.01,2013-01-05 12:51:00,
2013-01-05 06:54:00,22.5,17.6,29.33,South,182,0.0,0.0,81,0.00,,CLR,0.00,0.00,VWS V14.01,2013-01-05 12:54:00,
2013-01-05 06:55:00,22.5,17.6,29.33,South,182,0.0,1.0,81,0.00,,CLR,0.00,0.00,VWS V14.01,2013-01-05 12:55:00,
2013-01-05 06:56:00,22.5,17.6,29.33,South,182,0.0,0.0,81,0.00,,CLR,0.00,0.00,VWS V14.01,2013-01-05 12:56:00,
2013-01-05 07:00:00,22.6,17.4,29.33,South,182,0.0,0.0,80,0.00,,CLR,0.00,0.00,VWS V14.01,2013-01-05 13:00:00,
2013-01-05 07:02:00,22.6,17.4,29.33,South,182,0.0,1.0,80,0.00,,CLR,0.00,0.00,VWS V14.01,2013-01-05 13:02:00,
2013-01-05 07:05:00,22.6,17.4,29.32,South,182,0.0,0.0,80,0.00,,CLR,0.00,0.00,VWS V14.01,2013-01-05 13:05:00,
2013-01-05 07:06:00,22.6,17.4,29.32,South,182,0.0,1.0,80,0.00,,CLR,0.00,0.00,VWS V14.01,2013-01-05 13:06:00,
2013-01-05 07:11:00,22.5,17.3,29.32,South,182,0.0,1.0,80,0.00,,CLR,0.00,0.00,VWS V14.01,2013-01-05 13:11:00,
2013-01-05 07:14:00,22.4,17.2,29.32,South,182,0.0,0.0,80,0.00,,CLR,0.00,0.00,VWS V14.01,2013-01-05 13:14:00,
2013-01-05 07:16:00,22.4,17.2,29.32,South,182,0.0,1.0,80,0.00,,CLR,0.00,0.00,VWS V14.01,2013-01-05 13:16:00,
2013-01-05 07:18:00,22.4,17.2,29.32,South,182,0.0,0.0,80,0.00,,CLR,0.00,0.00,VWS V14.01,2013-01-05 13:18:00,
2013-01-05 07:20:00,22.4,17.2,29.32,South,182,0.0,0.0,80,0.00,,CLR,0.00,5.00,VWS V14.01,2013-01-05 13:20:00,
2013-01-05 07:21:00,22.4,17.2,29.32,South,182,0.0,0.0,80,0.00,,CLR,0.00,5.00,VWS V14.01,2013-01-05 13:21:00,
2013-01-05 07:24:00,22.3,17.1,29.32,South,182,0.0,0.0,80,0.00,,CLR,0.00,5.00,VWS V14.01,2013-01-05 13:24:00,
2013-01-05 07:25:00,22.3,17.1,29.32,South,182,0.0,0.0,80,0.00,,CLR,0.00,5.00,VWS V14.01,2013-01-05 13:25:00,
2013-01-05 07:27:00,22.3,17.1,29.33,South,182,0.0,0.0,80,0.00,,CLR,0.00,7.00,VWS V14.01,2013-01-05 13:27:00,
2013-01-05 07:28:00,22.3,17.1,29.33,South,182,0.0,0.0,80,0.00,,CLR,0.00,9.00,VWS V14.01,2013-01-05 13:28:00,
2013-01-05 07:30:00,22.3,17.1,29.33,South,182,0.0,0.0,80,0.00,,CLR,0.00,9.00,VWS V14.01,2013-01-05 13:30:00,
2013-01-05 07:33:00,22.2,17.0,29.33,South,182,0.0,1.0,80,0.00,,CLR,0.00,9.00,VWS V14.01,2013-01-05 13:33:00,
2013-01-05 07:34:00,22.2,17.0,29.33,South,182,0.0,0.0,80,0.00,,CLR,0.00,11.00,VWS V14.01,2013-01-05 13:34:00,
2013-01-05 07:37:00,22.3,17.4,29.33,SE,140,0.0,1.0,81,0.00,,CLR,0.00,12.00,VWS V14.01,2013-01-05 13:37:00,
2013-01-05 07:39:00,22.4,17.5,29.33,SE,140,0.0,1.0,81,0.00,,CLR,0.00,12.00,VWS V14.01,2013-01-05 13:39:00,
2013-01-05 07:41:00,22.5,17.6,29.33,SE,140,0.0,1.0,81,0.00,,CLR,0.00,14.00,VWS V14.01,2013-01-05 13:41:00,
2013-01-05 07:44:00,22.7,17.8,29.33,East,86,0.0,1.0,81,0.00,,CLR,0.00,16.00,VWS V14.01,2013-01-05 13:44:00,
2013-01-05 07:47:00,22.8,17.9,29.33,ESE,120,0.0,2.0,81,0.00,,CLR,0.00,18.00,VWS V14.01,2013-01-05 13:47:00,
2013-01-05 07:49:00,22.9,17.7,29.34,ESE,121,0.0,1.0,80,0.00,,CLR,0.00,21.00,VWS V14.01,2013-01-05 13:49:00,
2013-01-05 07:50:00,23.0,17.8,29.34,WSW,258,3.0,3.0,80,0.00,,CLR,0.00,21.00,VWS V14.01,2013-01-05 13:50:00,
2013-01-05 07:54:00,23.2,18.0,29.34,SE,136,1.0,2.0,80,0.00,,CLR,0.00,23.00,VWS V14.01,2013-01-05 13:54:00,
2013-01-05 07:55:00,23.3,18.1,29.34,SE,144,1.0,2.0,80,0.00,,CLR,0.00,23.00,VWS V14.01,2013-01-05 13:55:00,
2013-01-05 08:00:00,23.4,18.1,29.34,ENE,69,0.0,2.0,80,0.00,,CLR,0.00,33.00,VWS V14.01,2013-01-05 14:00:00,
2013-01-05 08:01:00,23.4,17.9,29.34,ENE,69,0.0,1.0,79,0.00,,CLR,0.00,33.00,VWS V14.01,2013-01-05 14:01:00,
2013-01-05 08:02:00,23.4,17.9,29.34,ENE,69,0.0,0.0,79,0.00,,CLR,0.00,37.00,VWS V14.01,2013-01-05 14:02:00,
2013-01-05 08:04:00,23.5,18.0,29.33,ESE,119,0.0,2.0,79,0.00,,CLR,0.00,44.00,VWS V14.01,2013-01-05 14:04:00,
2013-01-05 08:07:00,23.5,18.0,29.33,ESE,119,0.0,0.0,79,0.00,,CLR,0.00,42.00,VWS V14.01,2013-01-05 14:07:00,
2013-01-05 08:08:00,23.5,18.0,29.33,ESE,119,0.0,0.0,79,0.00,,CLR,0.00,28.00,VWS V14.01,2013-01-05 14:08:00,
2013-01-05 08:12:00,23.6,18.1,29.34,SSE,165,0.0,0.0,79,0.00,,CLR,0.00,33.00,VWS V14.01,2013-01-05 14:12:00,
2013-01-05 08:13:00,23.7,18.1,29.34,SSE,165,0.0,0.0,79,0.00,,CLR,0.00,37.00,VWS V14.01,2013-01-05 14:13:00,
2013-01-05 08:14:00,23.7,18.1,29.34,South,178,1.0,2.0,79,0.00,,CLR,0.00,40.00,VWS V14.01,2013-01-05 14:14:00,
2013-01-05 08:16:00,23.8,18.2,29.34,SE,145,0.0,4.0,79,0.00,,CLR,0.00,49.00,VWS V14.01,2013-01-05 14:16:00,
2013-01-05 08:19:00,23.9,18.4,29.34,SE,146,0.0,2.0,79,0.00,,CLR,0.00,54.00,VWS V14.01,2013-01-05 14:19:00,
2013-01-05 08:20:00,23.9,18.4,29.34,SE,146,0.0,1.0,79,0.00,,CLR,0.00,56.00,VWS V14.01,2013-01-05 14:20:00,
2013-01-05 08:21:00,23.9,18.4,29.33,SE,146,0.0,1.0,79,0.00,,CLR,0.00,58.00,VWS V14.01,2013-01-05 14:21:00,
2013-01-05 08:22:00,23.9,18.4,29.33,SSE,156,1.0,4.0,79,0.00,,CLR,0.00,60.00,VWS V14.01,2013-01-05 14:22:00,
2013-01-05 08:25:00,24.1,18.5,29.33,SSE,156,0.0,0.0,79,0.00,,CLR,0.00,60.00,VWS V14.01,2013-01-05 14:25:00,
2013-01-05 08:27:00,24.2,18.6,29.33,SSE,159,4.0,4.0,79,0.00,,CLR,0.00,62.00,VWS V14.01,2013-01-05 14:27:00,
2013-01-05 08:30:00,24.3,18.7,29.33,SSE,159,0.0,1.0,79,0.00,,CLR,0.00,65.00,VWS V14.01,2013-01-05 14:30:00,
2013-01-05 08:32:00,24.4,18.8,29.33,SSE,167,2.0,4.0,79,0.00,,CLR,0.00,69.00,VWS V14.01,2013-01-05 14:32:00,
2013-01-05 08:34:00,24.5,18.9,29.33,WSW,238,0.0,4.0,79,0.00,,CLR,0.00,77.00,VWS V14.01,2013-01-05 14:34:00,
2013-01-05 08:35:00,24.6,19.0,29.33,WSW,238,0.0,2.0,79,0.00,,CLR,0.00,72.00,VWS V14.01,2013-01-05 14:35:00,
2013-01-05 08:38:00,24.8,19.2,29.33,SSE,147,0.0,0.0,79,0.00,,CLR,0.00,77.00,VWS V14.01,2013-01-05 14:38:00,
2013-01-05 08:40:00,24.9,19.0,29.33,SSE,152,0.0,2.0,78,0.00,,CLR,0.00,77.00,VWS V14.01,2013-01-05 14:40:00,
2013-01-05 08:41:00,25.0,19.1,29.33,SSE,152,0.0,1.0,78,0.00,,CLR,0.00,77.00,VWS V14.01,2013-01-05 14:41:00,
2013-01-05 08:46:00,25.4,19.5,29.33,South,180,0.0,1.0,78,0.00,,CLR,0.00,83.00,VWS V14.01,2013-01-05 14:46:00,
2013-01-05 08:47:00,25.4,19.5,29.33,South,180,0.0,0.0,78,0.00,,CLR,0.00,83.00,VWS V14.01,2013-01-05 14:47:00,
2013-01-05 08:49:00,25.6,19.7,29.33,South,180,0.0,1.0,78,0.00,,CLR,0.00,83.00,VWS V14.01,2013-01-05 14:49:00,
2013-01-05 08:50:00,25.6,19.7,29.33,SE,126,2.0,2.0,78,0.00,,CLR,0.00,83.00,VWS V14.01,2013-01-05 14:50:00,
2013-01-05 08:52:00,25.7,19.8,29.33,SSE,154,0.0,0.0,78,0.00,,CLR,0.00,86.00,VWS V14.01,2013-01-05 14:52:00,
2013-01-05 08:54:00,25.9,20.0,29.33,South,180,0.0,1.0,78,0.00,,CLR,0.00,88.00,VWS V14.01,2013-01-05 14:54:00,
2013-01-05 08:57:00,26.1,20.2,29.33,South,182,0.0,0.0,78,0.00,,CLR,0.00,90.00,VWS V14.01,2013-01-05 14:57:00,
2013-01-05 08:58:00,26.1,20.2,29.33,SW,217,1.0,2.0,78,0.00,,CLR,0.00,91.00,VWS V14.01,2013-01-05 14:58:00,
2013-01-05 09:03:00,26.5,20.6,29.33,South,186,0.0,2.0,78,0.00,,CLR,0.00,100.00,VWS V14.01,2013-01-05 15:03:00,
2013-01-05 09:04:00,26.5,20.6,29.33,SSW,192,0.0,4.0,78,0.00,,CLR,0.00,102.00,VWS V14.01,2013-01-05 15:04:00,
2013-01-05 09:06:00,26.7,20.5,29.33,SSW,192,0.0,1.0,77,0.00,,CLR,0.00,105.00,VWS V14.01,2013-01-05 15:06:00,
2013-01-05 09:08:00,26.8,20.6,29.33,SSW,192,0.0,0.0,77,0.00,,CLR,0.00,111.00,VWS V14.01,2013-01-05 15:08:00,
2013-01-05 09:09:00,26.9,21.0,29.33,SSW,192,0.0,1.0,78,0.00,,CLR,0.00,113.00,VWS V14.01,2013-01-05 15:09:00,
2013-01-05 09:10:00,27.0,21.1,29.33,SSW,192,0.0,1.0,78,0.00,,CLR,0.00,113.00,VWS V14.01,2013-01-05 15:10:00,
2013-01-05 09:13:00,27.2,21.0,29.33,SE,128,0.0,0.0,77,0.00,,CLR,0.00,113.00,VWS V14.01,2013-01-05 15:13:00,
2013-01-05 09:15:00,27.3,21.1,29.33,SE,142,2.0,2.0,77,0.00,,CLR,0.00,113.00,VWS V14.01,2013-01-05 15:15:00,
2013-01-05 09:16:00,27.4,21.1,29.33,NNW,345,0.0,2.0,77,0.00,,CLR,0.00,113.00,VWS V14.01,2013-01-05 15:16:00,
2013-01-05 09:21:00,27.6,21.4,29.33,ENE,78,0.0,0.0,77,0.00,,CLR,0.00,118.00,VWS V14.01,2013-01-05 15:21:00,
2013-01-05 09:24:00,27.8,21.5,29.32,ENE,78,0.0,0.0,77,0.00,,CLR,0.00,125.00,VWS V14.01,2013-01-05 15:24:00,
2013-01-05 09:26:00,28.0,21.7,29.32,SSE,152,2.0,4.0,77,0.00,,CLR,0.00,130.00,VWS V14.01,2013-01-05 15:26:00,
2013-01-05 09:27:00,28.0,21.7,29.32,SSE,152,0.0,2.0,77,0.00,,CLR,0.00,130.00,VWS V14.01,2013-01-05 15:27:00,
2013-01-05 09:31:00,28.3,22.0,29.32,SSE,164,0.0,1.0,77,0.00,,CLR,0.00,141.00,VWS V14.01,2013-01-05 15:31:00,
2013-01-05 09:32:00,28.4,22.1,29.32,SSE,165,0.0,1.0,77,0.00,,CLR,0.00,144.00,VWS V14.01,2013-01-05 15:32:00,
2013-01-05 09:35:00,28.6,22.3,29.33,SSE,165,0.0,0.0,77,0.00,,CLR,0.00,153.00,VWS V14.01,2013-01-05 15:35:00,
2013-01-05 09:37:00,28.8,22.2,29.33,SW,236,6.0,6.0,76,0.00,,CLR,0.00,167.00,VWS V14.01,2013-01-05 15:37:00,
2013-01-05 09:39:00,28.9,22.3,29.33,WSW,249,0.0,3.0,76,0.00,,CLR,0.00,167.00,VWS V14.01,2013-01-05 15:39:00,
2013-01-05 09:41:00,29.0,22.4,29.33,South,170,0.0,2.0,76,0.00,,CLR,0.00,158.00,VWS V14.01,2013-01-05 15:41:00,
2013-01-05 09:42:00,29.1,22.5,29.33,SW,218,0.0,4.0,76,0.00,,CLR,0.00,158.00,VWS V14.01,2013-01-05 15:42:00,
2013-01-05 09:45:00,29.3,22.7,29.33,SE,138,1.0,2.0,76,0.00,,CLR,0.00,155.00,VWS V14.01,2013-01-05 15:45:00,
2013-01-05 09:47:00,29.3,22.7,29.33,SSW,203,0.0,4.0,76,0.00,,CLR,0.00,149.00,VWS V14.01,2013-01-05 15:47:00,
2013-01-05 09:48:00,29.3,22.7,29.33,South,186,0.0,2.0,76,0.00,,CLR,0.00,148.00,VWS V14.01,2013-01-05 15:48:00,
2013-01-05 09:53:00,29.6,22.7,29.33,SE,125,0.0,2.0,75,0.00,,CLR,0.00,158.00,VWS V14.01,2013-01-05 15:53:00,
2013-01-05 09:54:00,29.6,22.7,29.33,SE,125,0.0,1.0,75,0.00,,CLR,0.00,163.00,VWS V14.01,2013-01-05 15:54:00,
2013-01-05 09:57:00,29.7,22.8,29.33,SW,225,0.0,4.0,75,0.00,,CLR,0.00,151.00,VWS V14.01,2013-01-05 15:57:00,
2013-01-05 09:58:00,29.7,22.8,29.33,WSW,252,2.0,3.0,75,0.00,,CLR,0.00,149.00,VWS V14.01,2013-01-05 15:58:00,
2013-01-05 10:00:00,29.7,22.8,29.33,West,275,2.0,5.0,75,0.00,,CLR,0.00,146.00,VWS V14.01,2013-01-05 16:00:00,
2013-01-05 10:02:00,29.7,22.8,29.33,SW,232,0.0,2.0,75,0.00,,CLR,0.00,146.00,VWS V14.01,2013-01-05 16:02:00,
2013-01-05 10:03:00,29.8,22.9,29.33,South,190,0.0,3.0,75,0.00,,CLR,0.00,146.00,VWS V14.01,2013-01-05 16:03:00,
2013-01-05 10:07:00,29.8,22.9,29.33,SSW,212,0.0,2.0,75,0.00,,CLR,0.00,146.00,VWS V14.01,2013-01-05 16:07:00,
2013-01-05 10:09:00,29.8,22.9,29.33,SW,223,1.0,3.0,75,0.00,,CLR,0.00,146.00,VWS V14.01,2013-01-05 16:09:00,
2013-01-05 10:11:00,29.9,23.0,29.33,SW,223,0.0,1.0,75,0.00,,CLR,0.00,151.00,VWS V14.01,2013-01-05 16:11:00,
2013-01-05 10:12:00,29.9,23.0,29.33,SW,224,2.0,2.0,75,0.00,,CLR,0.00,149.00,VWS V14.01,2013-01-05 16:12:00,
2013-01-05 10:14:00,30.0,23.0,29.33,SW,217,0.0,2.0,75,0.00,,CLR,0.00,146.00,VWS V14.01,2013-01-05 16:14:00,
2013-01-05 10:18:00,30.0,22.7,29.33,WSW,240,3.0,4.0,74,0.00,,CLR,0.00,142.00,VWS V14.01,2013-01-05 16:18:00,
2013-01-05 10:19:00,30.0,22.7,29.33,WSW,240,1.0,3.0,74,0.00,,CLR,0.00,146.00,VWS V14.01,2013-01-05 16:19:00,
2013-01-05 10:20:00,30.0,23.0,29.33,WSW,240,2.0,3.0,75,0.00,,CLR,0.00,149.00,VWS V14.01,2013-01-05 16:20:00,
2013-01-05 10:25:00,30.1,23.1,29.33,SW,219,0.0,3.0,75,0.00,,CLR,0.00,258.00,VWS V14.01,2013-01-05 16:25:00,
2013-01-05 10:26:00,30.1,23.1,29.33,SW,219,1.0,4.0,75,0.00,,CLR,0.00,253.00,VWS V14.01,2013-01-05 16:26:00,
2013-01-05 10:28:00,30.2,23.2,29.33,SSW,206,2.0,3.0,75,0.00,,CLR,0.00,199.00,VWS V14.01,2013-01-05 16:28:00,
2013-01-05 10:33:00,30.4,23.4,29.33,SSE,155,0.0,1.0,75,0.00,,CLR,0.00,220.00,VWS V14.01,2013-01-05 16:33:00,
2013-01-05 10:36:00,30.5,23.5,29.33,South,188,0.0,5.0,75,0.00,,CLR,0.00,241.00,VWS V14.01,2013-01-05 16:36:00,
2013-01-05 10:37:00,30.6,23.6,29.33,ESE,119,0.0,1.0,75,0.00,,CLR,0.00,338.00,VWS V14.01,2013-01-05 16:37:00,
2013-01-05 10:38:00,30.6,23.6,29.32,ESE,121,0.0,1.0,75,0.00,,CLR,0.00,413.00,VWS V14.01,2013-01-05 16:38:00,
2013-01-05 10:42:00,31.0,24.0,29.32,SE,133,2.0,4.0,75,0.00,,CLR,0.00,267.00,VWS V14.01,2013-01-05 16:42:00,
2013-01-05 10:43:00,31.0,24.0,29.32,SE,133,0.0,2.0,75,0.00,,CLR,0.00,318.00,VWS V14.01,2013-01-05 16:43:00,
2013-01-05 10:45:00,31.2,24.2,29.31,South,186,1.0,2.0,75,0.00,,CLR,0.00,292.00,VWS V14.01,2013-01-05 16:45:00,
2013-01-05 10:47:00,31.4,24.4,29.31,SE,137,0.0,2.0,75,0.00,,CLR,0.00,251.00,VWS V14.01,2013-01-05 16:47:00,
2013-01-05 10:48:00,31.5,24.2,29.31,South,169,0.0,4.0,74,0.00,,CLR,0.00,239.00,VWS V14.01,2013-01-05 16:48:00,
2013-01-05 10:51:00,31.6,24.3,29.31,SW,222,0.0,4.0,74,0.00,,CLR,0.00,204.00,VWS V14.01,2013-01-05 16:51:00,
2013-01-05 10:53:00,31.6,24.3,29.31,South,171,1.0,2.0,74,0.00,,CLR,0.00,148.00,VWS V14.01,2013-01-05 16:53:00,
2013-01-05 10:56:00,31.7,24.4,29.31,SSW,196,1.0,1.0,74,0.00,,CLR,0.00,132.00,VWS V14.01,2013-01-05 16:56:00,
2013-01-05 10:57:00,31.8,24.5,29.31,East,98,0.0,4.0,74,0.00,,CLR,0.00,135.00,VWS V14.01,2013-01-05 16:57:00,
2013-01-05 11:02:00,31.9,24.6,29.30,SW,226,3.0,4.0,74,0.00,,CLR,0.00,169.00,VWS V14.01,2013-01-05 17:02:00,
2013-01-05 11:04:00,31.8,24.5,29.30,SW,221,3.0,3.0,74,0.00,,CLR,0.00,178.00,VWS V14.01,2013-01-05 17:04:00,
2013-01-05 11:05:00,31.8,24.5,29.30,SSE,159,1.0,4.0,74,0.00,,CLR,0.00,176.00,VWS V14.01,2013-01-05 17:05:00,
2013-01-05 11:07:00,31.8,24.5,29.30,SSE,149,0.0,4.0,74,0.00,,CLR,0.00,153.00,VWS V14.01,2013-01-05 17:07:00,
2013-01-05 11:12:00,31.8,24.5,29.30,West,261,0.0,3.0,74,0.00,,CLR,0.00,120.00,VWS V14.01,2013-01-05 17:12:00,
2013-01-05 11:14:00,31.8,24.8,29.31,West,261,0.0,1.0,75,0.00,,CLR,0.00,114.00,VWS V14.01,2013-01-05 17:14:00,
2013-01-05 11:15:00,31.8,24.8,29.30,West,261,2.0,5.0,75,0.00,,CLR,0.00,111.00,VWS V14.01,2013-01-05 17:15:00,
2013-01-05 11:21:00,31.7,24.7,29.30,WSW,246,2.0,6.0,75,0.00,,CLR,0.00,91.00,VWS V14.01,2013-01-05 17:21:00,
2013-01-05 11:22:00,31.7,24.7,29.30,West,272,3.0,3.0,75,0.00,,CLR,0.00,91.00,VWS V14.01,2013-01-05 17:22:00,
2013-01-05 11:24:00,31.6,24.9,29.30,WSW,254,0.0,2.0,76,0.00,,CLR,0.00,91.00,VWS V14.01,2013-01-05 17:24:00,
2013-01-05 11:26:00,31.6,24.9,29.31,South,191,2.0,5.0,76,0.00,,CLR,0.00,88.00,VWS V14.01,2013-01-05 17:26:00,
2013-01-05 11:27:00,31.6,24.9,29.30,SSW,192,3.0,3.0,76,0.00,,CLR,0.00,88.00,VWS V14.01,2013-01-05 17:27:00,
2013-01-05 11:32:00,31.7,25.0,29.31,West,261,0.0,1.0,76,0.00,,CLR,0.00,88.00,VWS V14.01,2013-01-05 17:32:00,
2013-01-05 11:33:00,31.7,25.0,29.31,West,260,1.0,1.0,76,0.00,,CLR,0.00,86.00,VWS V14.01,2013-01-05 17:33:00,
2013-01-05 11:38:00,31.7,25.0,29.30,WSW,258,0.0,3.0,76,0.00,,CLR,0.00,69.00,VWS V14.01,2013-01-05 17:38:00,
2013-01-05 11:39:00,31.7,25.0,29.30,WSW,242,0.0,2.0,76,0.00,,CLR,0.00,65.00,VWS V14.01,2013-01-05 17:39:00,
2013-01-05 11:41:00,31.7,25.0,29.30,ESE,114,1.0,2.0,76,0.00,,CLR,0.00,67.00,VWS V14.01,2013-01-05 17:41:00,
2013-01-05 11:46:00,31.8,25.4,29.29,West,261,4.0,5.0,77,0.00,,CLR,0.00,135.00,VWS V14.01,2013-01-05 17:46:00,
2013-01-05 11:47:00,31.8,25.4,29.29,West,261,1.0,4.0,77,0.00,,CLR,0.00,135.00,VWS V14.01,2013-01-05 17:47:00,
2013-01-05 11:49:00,31.8,25.4,29.30,West,261,0.0,1.0,77,0.00,,CLR,0.00,120.00,VWS V14.01,2013-01-05 17:49:00,
2013-01-05 11:51:00,31.9,25.5,29.29,West,261,0.0,1.0,77,0.00,,CLR,0.00,100.00,VWS V14.01,2013-01-05 17:51:00,
2013-01-05 11:52:00,32.0,25.6,29.29,West,261,0.0,3.0,77,0.00,,CLR,0.00,86.00,VWS V14.01,2013-01-05 17:52:00,
2013-01-05 11:54:00,32.0,25.6,29.29,West,261,0.0,1.0,77,0.00,,CLR,0.00,81.00,VWS V14.01,2013-01-05 17:54:00,
2013-01-05 11:56:00,32.1,25.7,29.29,South,182,1.0,2.0,77,0.00,,CLR,0.00,77.00,VWS V14.01,2013-01-05 17:56:00,
2013-01-05 11:57:00,32.1,25.7,29.29,South,182,1.0,1.0,77,0.00,,CLR,0.00,76.00,VWS V14.01,2013-01-05 17:57:00,
2013-01-05 11:59:00,32.2,25.8,29.29,WSW,238,2.0,4.0,77,0.00,,CLR,0.00,70.00,VWS V14.01,2013-01-05 17:59:00,
2013-01-05 12:02:00,32.2,25.8,29.29,South,186,0.0,2.0,77,0.00,,CLR,0.00,60.00,VWS V14.01,2013-01-05 18:02:00,
2013-01-05 12:04:00,32.3,25.9,29.29,South,186,0.0,1.0,77,0.00,,CLR,0.00,69.00,VWS V14.01,2013-01-05 18:04:00,
2013-01-05 12:09:00,32.4,26.0,29.29,WSW,256,0.0,2.0,77,0.00,,CLR,0.00,70.00,VWS V14.01,2013-01-05 18:09:00,
2013-01-05 12:11:00,32.3,25.9,29.29,SW,236,0.0,4.0,77,0.00,,CLR,0.00,63.00,VWS V14.01,2013-01-05 18:11:00,
2013-01-05 12:15:00,32.1,26.3,29.29,SW,236,0.0,2.0,79,0.00,,CLR,0.00,42.00,VWS V14.01,2013-01-05 18:15:00,
2013-01-05 12:16:00,32.0,26.2,29.29,WSW,240,1.0,2.0,79,0.00,,CLR,0.00,39.00,VWS V14.01,2013-01-05 18:16:00,
2013-01-05 12:18:00,31.9,26.4,29.29,West,266,2.0,3.0,80,0.00,,CLR,0.00,35.00,VWS V14.01,2013-01-05 18:18:00,
2013-01-05 12:19:00,31.8,26.6,29.29,West,273,1.0,4.0,81,0.00,,CLR,0.00,35.00,VWS V14.01,2013-01-05 18:19:00,
2013-01-05 12:21:00,31.6,26.8,29.29,SW,219,3.0,3.0,82,0.00,,CLR,0.00,39.00,VWS V14.01,2013-01-05 18:21:00,
2013-01-05 12:22:00,31.5,26.6,29.29,SW,234,3.0,3.0,82,0.00,,CLR,0.00,40.00,VWS V14.01,2013-01-05 18:22:00,
2013-01-05 12:26:00,31.2,26.9,29.29,WSW,237,1.0,4.0,84,0.00,,CLR,0.00,56.00,VWS V14.01,2013-01-05 18:26:00,
2013-01-05 12:28:00,31.1,26.8,29.29,West,264,1.0,2.0,84,0.00,,CLR,0.00,65.00,VWS V14.01,2013-01-05 18:28:00,
2013-01-05 12:31:00,31.0,27.0,29.28,SW,229,0.0,4.0,85,0.00,,CLR,0.00,62.00,VWS V14.01,2013-01-05 18:31:00,
2013-01-05 12:32:00,30.9,26.9,29.28,SW,229,0.0,0.0,85,0.00,,CLR,0.00,67.00,VWS V14.01,2013-01-05 18:32:00,
2013-01-05 12:33:00,30.9,26.9,29.27,South,190,1.0,5.0,85,0.00,,CLR,0.00,70.00,VWS V14.01,2013-01-05 18:33:00,
2013-01-05 12:36:00,30.9,27.2,29.27,SSE,150,0.0,0.0,86,0.00,,CLR,0.00,90.00,VWS V14.01,2013-01-05 18:36:00,
2013-01-05 12:38:00,31.0,27.3,29.27,SSE,151,0.0,1.0,86,0.00,,CLR,0.00,88.00,VWS V14.01,2013-01-05 18:38:00,
2013-01-05 12:40:00,31.0,27.3,29.27,SSE,151,0.0,1.0,86,0.00,,CLR,0.00,74.00,VWS V14.01,2013-01-05 18:40:00,
2013-01-05 12:42:00,31.1,27.4,29.27,SSE,150,0.0,0.0,86,0.00,,CLR,0.00,83.00,VWS V14.01,2013-01-05 18:42:00,
2013-01-05 12:43:00,31.1,27.4,29.27,SSE,150,0.0,0.0,86,0.00,,CLR,0.00,81.00,VWS V14.01,2013-01-05 18:43:00,
2013-01-05 12:45:00,31.1,27.4,29.26,WSW,239,2.0,2.0,86,0.00,,CLR,0.00,91.00,VWS V14.01,2013-01-05 18:45:00,
2013-01-05 12:46:00,31.1,27.7,29.26,WSW,239,0.0,2.0,87,0.00,,CLR,0.00,93.00,VWS V14.01,2013-01-05 18:46:00,
2013-01-05 12:51:00,31.2,27.8,29.26,SSW,202,1.0,4.0,87,0.00,,CLR,0.00,120.00,VWS V14.01,2013-01-05 18:51:00,
2013-01-05 12:53:00,31.2,27.8,29.26,WSW,252,0.0,0.0,87,0.00,,CLR,0.00,162.00,VWS V14.01,2013-01-05 18:53:00,
2013-01-05 12:58:00,31.4,28.0,29.26,WSW,252,1.0,3.0,87,0.00,,CLR,0.00,299.00,VWS V14.01,2013-01-05 18:58:00,
2013-01-05 12:59:00,31.5,28.1,29.26,WSW,252,0.0,2.0,87,0.00,,CLR,0.00,311.00,VWS V14.01,2013-01-05 18:59:00,
2013-01-05 13:02:00,31.7,28.6,29.26,WSW,252,0.0,0.0,88,0.00,,,0.00,283.00,VWS V14.01,2013-01-05 19:02:00,
2013-01-05 13:04:00,31.9,28.8,29.26,WSW,252,2.0,3.0,88,0.00,,,0.00,265.00,VWS V14.01,2013-01-05 19:04:00,
2013-01-05 13:09:00,32.1,29.0,29.25,WSW,243,3.0,3.0,88,0.00,,,0.00,193.00,VWS V14.01,2013-01-05 19:09:00,
2013-01-05 13:10:00,32.1,29.0,29.25,WSW,244,2.0,3.0,88,0.00,,,0.00,227.00,VWS V14.01,2013-01-05 19:10:00,
2013-01-05 13:13:00,32.2,29.0,29.25,WSW,244,0.0,3.0,88,0.00,,,0.00,225.00,VWS V14.01,2013-01-05 19:13:00,
2013-01-05 13:15:00,32.3,29.1,29.25,WSW,244,0.0,0.0,88,0.00,,,0.00,197.00,VWS V14.01,2013-01-05 19:15:00,
2013-01-05 13:17:00,32.4,29.2,29.25,WSW,244,1.0,1.0,88,0.00,,,0.00,193.00,VWS V14.01,2013-01-05 19:17:00,
2013-01-05 13:20:00,32.5,29.1,29.25,WSW,244,3.0,3.0,87,0.00,,,0.00,188.00,VWS V14.01,2013-01-05 19:20:00,
2013-01-05 13:21:00,32.5,29.4,29.25,ESE,107,0.0,3.0,88,0.00,,,0.00,183.00,VWS V14.01,2013-01-05 19:21:00,
2013-01-05 13:25:00,32.6,29.2,29.24,South,182,0.0,0.0,87,0.00,,,0.00,179.00,VWS V14.01,2013-01-05 19:25:00,
2013-01-05 13:26:00,32.6,29.2,29.24,South,182,1.0,2.0,87,0.00,,,0.00,211.00,VWS V14.01,2013-01-05 19:26:00,
2013-01-05 13:29:00,32.8,29.4,29.24,South,182,0.0,1.0,87,0.00,,,0.00,230.00,VWS V14.01,2013-01-05 19:29:00,
2013-01-05 13:32:00,33.0,29.6,29.24,West,267,1.0,3.0,87,0.00,,,0.00,279.00,VWS V14.01,2013-01-05 19:32:00,
2013-01-05 13:34:00,33.1,29.7,29.24,WSW,239,2.0,4.0,87,0.00,,,0.00,320.00,VWS V14.01,2013-01-05 19:34:00,
2013-01-05 13:39:00,33.4,30.0,29.24,South,184,0.0,1.0,87,0.00,,,0.00,283.00,VWS V14.01,2013-01-05 19:39:00,
2013-01-05 13:40:00,33.5,30.0,29.24,ESE,119,0.0,2.0,87,0.00,,,0.00,265.00,VWS V14.01,2013-01-05 19:40:00,
2013-01-05 13:41:00,33.7,30.2,29.24,SSE,152,0.0,2.0,87,0.00,,,0.00,241.00,VWS V14.01,2013-01-05 19:41:00,
2013-01-05 13:43:00,33.8,31.7,29.23,SSE,152,0.0,1.0,92,0.00,,,0.00,218.00,VWS V14.01,2013-01-05 19:43:00,
2013-01-05 13:46:00,34.1,30.4,29.23,SSE,152,0.0,1.0,86,0.00,,,0.00,151.00,VWS V14.01,2013-01-05 19:46:00,
2013-01-05 13:48:00,34.1,30.4,29.23,SSE,152,1.0,1.0,86,0.00,,,0.00,146.00,VWS V14.01,2013-01-05 19:48:00,
2013-01-05 13:51:00,34.2,30.2,29.23,SSE,152,0.0,1.0,85,0.00,,,0.00,229.00,VWS V14.01,2013-01-05 19:51:00,
2013-01-05 13:52:00,34.2,30.2,29.23,SSE,152,0.0,0.0,85,0.00,,,0.00,236.00,VWS V14.01,2013-01-05 19:52:00,
2013-01-05 13:53:00,34.2,30.2,29.23,SW,217,1.0,2.0,85,0.00,,,0.00,237.00,VWS V14.01,2013-01-05 19:53:00,
2013-01-05 13:57:00,33.9,29.6,29.22,South,173,2.0,4.0,84,0.00,,,0.00,211.00,VWS V14.01,2013-01-05 19:57:00,
2013-01-05 13:58:00,34.0,29.7,29.22,SE,125,1.0,2.0,84,0.00,,,0.00,241.00,VWS V14.01,2013-01-05 19:58:00,
2013-01-05 14:01:00,34.1,29.8,29.22,SE,131,0.0,1.0,84,0.00,,,0.00,279.00,VWS V14.01,2013-01-05 20:01:00,
2013-01-05 14:02:00,34.2,29.9,29.22,SE,136,0.0,2.0,84,0.00,,,0.00,271.00,VWS V14.01,2013-01-05 20:02:00,
2013-01-05 14:04:00,34.4,30.1,29.22,SE,125,1.0,4.0,84,0.00,,,0.00,251.00,VWS V14.01,2013-01-05 20:04:00,
2013-01-05 14:06:00,34.4,30.1,29.22,ESE,123,1.0,2.0,84,0.00,,,0.00,241.00,VWS V14.01,2013-01-05 20:06:00,
2013-01-05 14:09:00,34.7,30.4,29.21,ESE,112,1.0,2.0,84,0.00,,,0.00,258.00,VWS V14.01,2013-01-05 20:09:00,
2013-01-05 14:10:00,34.8,30.5,29.21,ESE,119,1.0,2.0,84,0.00,,,0.00,318.00,VWS V14.01,2013-01-05 20:10:00,
2013-01-05 14:14:00,35.0,30.4,29.21,SSE,162,0.0,4.0,83,0.00,,,0.00,264.00,VWS V14.01,2013-01-05 20:14:00,
2013-01-05 14:16:00,35.1,30.5,29.21,SSE,162,1.0,1.0,83,0.00,,,0.00,265.00,VWS V14.01,2013-01-05 20:16:00,
2013-01-05 14:19:00,35.2,30.6,29.21,SE,132,2.0,2.0,83,0.00,,,0.00,216.00,VWS V14.01,2013-01-05 20:19:00,
2013-01-05 14:21:00,35.3,30.7,29.21,SE,131,1.0,2.0,83,0.00,,,0.00,174.00,VWS V14.01,2013-01-05 20:21:00,
2013-01-05 14:23:00,35.3,30.4,29.21,SE,131,0.0,1.0,82,0.00,,,0.00,156.00,VWS V14.01,2013-01-05 20:23:00,
2013-01-05 14:24:00,35.3,30.4,29.21,SE,131,1.0,2.0,82,0.00,,,0.00,155.00,VWS V14.01,2013-01-05 20:24:00,
2013-01-05 14:29:00,35.2,30.3,29.21,SE,131,0.0,1.0,82,0.00,,,0.00,135.00,VWS V14.01,2013-01-05 20:29:00,
2013-01-05 14:30:00,35.2,30.3,29.21,SE,126,1.0,4.0,82,0.00,,,0.00,137.00,VWS V14.01,2013-01-05 20:30:00,
2013-01-05 14:32:00,35.2,30.0,29.21,SE,126,0.0,2.0,81,0.00,,,0.00,134.00,VWS V14.01,2013-01-05 20:32:00,
2013-01-05 14:33:00,35.2,30.0,29.21,SE,125,1.0,1.0,81,0.00,,,0.00,127.00,VWS V14.01,2013-01-05 20:33:00,
2013-01-05 14:34:00,35.2,30.0,29.21,SE,126,0.0,2.0,81,0.00,,,0.00,123.00,VWS V14.01,2013-01-05 20:34:00,
2013-01-05 14:35:00,35.1,29.9,29.21,South,187,0.0,3.0,81,0.00,,,0.00,123.00,VWS V14.01,2013-01-05 20:35:00,
2013-01-05 14:38:00,35.0,29.8,29.21,SSE,167,0.0,2.0,81,0.00,,,0.00,125.00,VWS V14.01,2013-01-05 20:38:00,
2013-01-05 14:39:00,35.0,29.8,29.21,SSE,167,0.0,0.0,81,0.00,,,0.00,121.00,VWS V14.01,2013-01-05 20:39:00,
2013-01-05 14:40:00,34.9,29.7,29.21,SSE,167,0.0,0.0,81,0.00,,,0.00,116.00,VWS V14.01,2013-01-05 20:40:00,
2013-01-05 14:45:00,34.9,29.7,29.20,ESE,109,0.0,4.0,81,0.00,,,0.00,111.00,VWS V14.01,2013-01-05 20:45:00,
2013-01-05 14:47:00,35.0,29.8,29.20,ESE,109,0.0,1.0,81,0.00,,,0.00,105.00,VWS V14.01,2013-01-05 20:47:00,
2013-01-05 14:48:00,35.0,29.8,29.20,ESE,111,1.0,1.0,81,0.00,,,0.00,102.00,VWS V14.01,2013-01-05 20:48:00,
2013-01-05 14:52:00,35.0,29.8,29.20,SSE,163,0.0,4.0,81,0.00,,,0.00,95.00,VWS V14.01,2013-01-05 20:52:00,
2013-01-05 14:54:00,35.0,29.8,29.20,ESE,113,0.0,1.0,81,0.00,,,0.00,93.00,VWS V14.01,2013-01-05 20:54:00,
2013-01-05 14:57:00,35.0,29.8,29.20,ESE,120,0.0,4.0,81,0.00,,,0.00,97.00,VWS V14.01,2013-01-05 20:57:00,
2013-01-05 15:01:00,35.0,29.8,29.20,SSE,154,2.0,2.0,81,0.00,,BKN120,0.00,102.00,VWS V14.01,2013-01-05 21:01:00,
2013-01-05 15:02:00,35.0,29.8,29.20,ESE,106,0.0,2.0,81,0.00,,BKN120,0.00,105.00,VWS V14.01,2013-01-05 21:02:00,
2013-01-05 15:04:00,35.0,29.8,29.20,ESE,113,2.0,5.0,81,0.00,,BKN120,0.00,109.00,VWS V14.01,2013-01-05 21:04:00,
2013-01-05 15:08:00,35.0,30.1,29.20,SE,124,1.0,4.0,82,0.00,,BKN120,0.00,100.00,VWS V14.01,2013-01-05 21:08:00,
2013-01-05 15:10:00,35.0,30.1,29.20,ESE,123,1.0,2.0,82,0.00,,BKN120,0.00,102.00,VWS V14.01,2013-01-05 21:10:00,
2013-01-05 15:11:00,35.0,30.1,29.20,SE,140,1.0,1.0,82,0.00,,BKN120,0.00,104.00,VWS V14.01,2013-01-05 21:11:00,
2013-01-05 15:13:00,34.9,30.0,29.20,SSE,155,1.0,2.0,82,0.00,,BKN120,0.00,88.00,VWS V14.01,2013-01-05 21:13:00,
2013-01-05 15:16:00,35.0,30.1,29.20,SSE,158,0.0,4.0,82,0.00,,BKN120,0.00,93.00,VWS V14.01,2013-01-05 21:16:00,
2013-01-05 15:17:00,34.9,30.0,29.20,ESE,123,1.0,4.0,82,0.00,,BKN120,0.00,81.00,VWS V14.01,2013-01-05 21:17:00,
2013-01-05 15:19:00,35.0,30.1,29.20,ESE,104,2.0,5.0,82,0.00,,BKN120,0.00,77.00,VWS V14.01,2013-01-05 21:19:00,
2013-01-05 15:22:00,34.9,29.7,29.20,SSE,155,0.0,5.0,81,0.00,,BKN120,0.00,72.00,VWS V14.01,2013-01-05 21:22:00,
2013-01-05 15:24:00,34.8,29.6,29.20,ESE,107,0.0,1.0,81,0.00,,BKN120,0.00,69.00,VWS V14.01,2013-01-05 21:24:00,
2013-01-05 15:26:00,34.9,29.7,29.20,SE,138,4.0,6.0,81,0.00,,BKN120,0.00,56.00,VWS V14.01,2013-01-05 21:26:00,
2013-01-05 15:27:00,34.9,29.7,29.20,SE,137,0.0,4.0,81,0.00,,BKN120,0.00,60.00,VWS V14.01,2013-01-05 21:27:00,
2013-01-05 15:29:00,34.8,29.6,29.20,SE,138,0.0,1.0,81,0.00,,BKN120,0.00,56.00,VWS V14.01,2013-01-05 21:29:00,
2013-01-05 15:32:00,34.8,29.6,29.20,SSE,161,0.0,5.0,81,0.00,,BKN120,0.00,42.00,VWS V14.01,2013-01-05 21:32:00,
2013-01-05 15:33:00,34.8,29.6,29.20,ESE,115,0.0,4.0,81,0.00,,BKN120,0.00,44.00,VWS V14.01,2013-01-05 21:33:00,
2013-01-05 15:34:00,34.8,29.6,29.20,SE,126,0.0,1.0,81,0.00,,BKN120,0.00,47.00,VWS V14.01,2013-01-05 21:34:00,
2013-01-05 15:38:00,34.9,29.7,29.20,SE,142,0.0,1.0,81,0.00,,BKN120,0.00,51.00,VWS V14.01,2013-01-05 21:38:00,
2013-01-05 15:39:00,34.9,29.7,29.20,South,179,1.0,2.0,81,0.00,,BKN120,0.00,49.00,VWS V14.01,2013-01-05 21:39:00,
2013-01-05 15:40:00,34.9,29.7,29.20,South,179,0.0,1.0,81,0.00,,BKN120,0.00,46.00,VWS V14.01,2013-01-05 21:40:00,
2013-01-05 15:41:00,34.9,29.7,29.20,South,179,0.0,0.0,81,0.00,,BKN120,0.00,42.00,VWS V14.01,2013-01-05 21:41:00,
2013-01-05 15:45:00,34.9,29.7,29.20,SSE,159,2.0,4.0,81,0.00,,BKN120,0.00,37.00,VWS V14.01,2013-01-05 21:45:00,
2013-01-05 15:47:00,35.0,29.8,29.20,South,171,0.0,1.0,81,0.00,,BKN120,0.00,35.00,VWS V14.01,2013-01-05 21:47:00,
2013-01-05 15:48:00,35.0,29.8,29.20,South,171,1.0,1.0,81,0.00,,BKN120,0.00,33.00,VWS V14.01,2013-01-05 21:48:00,
2013-01-05 15:49:00,35.0,29.8,29.20,South,171,0.0,1.0,81,0.00,,BKN120,0.00,33.00,VWS V14.01,2013-01-05 21:49:00,
2013-01-05 15:50:00,35.0,29.8,29.20,South,171,0.0,2.0,81,0.00,,BKN120,0.00,33.00,VWS V14.01,2013-01-05 21:50:00,
2013-01-05 15:53:00,35.0,29.8,29.20,SE,139,2.0,2.0,81,0.00,,BKN120,0.00,32.00,VWS V14.01,2013-01-05 21:53:00,
2013-01-05 15:54:00,35.0,29.8,29.20,SSE,161,0.0,2.0,81,0.00,,BKN120,0.00,30.00,VWS V14.01,2013-01-05 21:54:00,
2013-01-05 15:56:00,35.0,29.8,29.20,East,99,2.0,4.0,81,0.00,,BKN120,0.00,26.00,VWS V14.01,2013-01-05 21:56:00,
2013-01-05 15:59:00,34.9,30.0,29.20,SE,134,2.0,3.0,82,0.00,,BKN120,0.00,18.00,VWS V14.01,2013-01-05 21:59:00,
2013-01-05 16:00:00,34.9,30.0,29.20,SSE,165,0.0,2.0,82,0.00,,BKN120,0.00,18.00,VWS V14.01,2013-01-05 22:00:00,
2013-01-05 16:03:00,34.9,30.0,29.20,SSE,161,1.0,6.0,82,0.00,,SCT065,0.00,14.00,VWS V14.01,2013-01-05 22:03:00,
2013-01-05 16:05:00,34.8,29.9,29.20,SSW,196,0.0,4.0,82,0.00,,SCT065,0.00,11.00,VWS V14.01,2013-01-05 22:05:00,
2013-01-05 16:06:00,34.8,29.9,29.20,SSW,195,0.0,2.0,82,0.00,,SCT065,0.00,11.00,VWS V14.01,2013-01-05 22:06:00,
2013-01-05 16:08:00,34.8,29.9,29.19,South,176,0.0,4.0,82,0.00,,SCT065,0.00,11.00,VWS V14.01,2013-01-05 22:08:00,
2013-01-05 16:13:00,34.6,29.7,29.19,ESE,110,5.0,6.0,82,0.00,,SCT065,0.00,9.00,VWS V14.01,2013-01-05 22:13:00,
2013-01-05 16:14:00,34.5,29.6,29.19,ESE,111,4.0,5.0,82,0.00,,SCT065,0.00,9.00,VWS V14.01,2013-01-05 22:14:00,
2013-01-05 16:15:00,34.5,29.6,29.19,SE,137,2.0,4.0,82,0.00,,SCT065,0.00,9.00,VWS V14.01,2013-01-05 22:15:00,
2013-01-05 16:16:00,34.5,29.6,29.19,North,355,1.0,5.0,82,0.00,,SCT065,0.00,9.00,VWS V14.01,2013-01-05 22:16:00,
2013-01-05 16:20:00,34.4,29.8,29.19,South,188,0.0,2.0,83,0.00,,SCT065,0.00,7.00,VWS V14.01,2013-01-05 22:20:00,
2013-01-05 16:21:00,34.4,29.8,29.19,SSE,149,0.0,2.0,83,0.00,,SCT065,0.00,7.00,VWS V14.01,2013-01-05 22:21:00,
2013-01-05 16:22:00,34.4,29.8,29.19,SSW,200,0.0,4.0,83,0.00,,SCT065,0.00,5.00,VWS V14.01,2013-01-05 22:22:00,
2013-01-05 16:25:00,34.4,29.8,29.19,SSE,160,0.0,4.0,83,0.00,,SCT065,0.00,5.00,VWS V14.01,2013-01-05 22:25:00,
2013-01-05 16:28:00,34.4,29.8,29.19,South,187,0.0,2.0,83,0.00,,SCT065,0.00,5.00,VWS V14.01,2013-01-05 22:28:00,
2013-01-05 16:29:00,34.4,29.8,29.19,SE,142,2.0,2.0,83,0.00,,SCT065,0.00,5.00,VWS V14.01,2013-01-05 22:29:00,
2013-01-05 16:32:00,34.4,29.8,29.19,South,169,4.0,7.0,83,0.00,,SCT065,0.00,0.00,VWS V14.01,2013-01-05 22:32:00,
2013-01-05 16:35:00,34.4,29.8,29.19,South,172,0.0,3.0,83,0.00,,SCT065,0.00,0.00,VWS V14.01,2013-01-05 22:35:00,
2013-01-05 16:37:00,34.4,29.8,29.19,SE,142,0.0,2.0,83,0.00,,SCT065,0.00,0.00,VWS V14.01,2013-01-05 22:37:00,
2013-01-05 16:38:00,34.3,29.7,29.19,South,178,0.0,4.0,83,0.00,,SCT065,0.00,0.00,VWS V14.01,2013-01-05 22:38:00,
2013-01-05 16:40:00,34.3,29.7,29.19,SSE,154,0.0,4.0,83,0.00,,SCT065,0.00,0.00,VWS V14.01,2013-01-05 22:40:00,
2013-01-05 16:43:00,34.2,29.6,29.19,ESE,111,1.0,5.0,83,0.00,,SCT065,0.00,0.00,VWS V14.01,2013-01-05 22:43:00,
2013-01-05 16:45:00,34.2,29.6,29.19,SW,230,1.0,2.0,83,0.00,,SCT065,0.00,0.00,VWS V14.01,2013-01-05 22:45:00,
2013-01-05 16:46:00,34.2,29.6,29.19,ESE,109,1.0,2.0,83,0.00,,SCT065,0.00,0.00,VWS V14.01,2013-01-05 22:46:00,
2013-01-05 16:50:00,34.2,29.6,29.19,SSE,155,0.0,5.0,83,0.00,,SCT065,0.00,0.00,VWS V14.01,2013-01-05 22:50:00,
2013-01-05 16:51:00,34.2,29.6,29.19,SSE,151,0.0,4.0,83,0.00,,SCT065,0.00,0.00,VWS V14.01,2013-01-05 22:51:00,
2013-01-05 16:54:00,34.2,29.6,29.19,ESE,109,5.0,5.0,83,0.00,,SCT065,0.00,0.00,VWS V14.01,2013-01-05 22:54:00,
2013-01-05 16:55:00,34.2,29.6,29.19,SSE,153,1.0,7.0,83,0.00,,SCT065,0.00,0.00,VWS V14.01,2013-01-05 22:55:00,
2013-01-05 16:56:00,34.2,29.6,29.19,SSE,149,0.0,4.0,83,0.00,,SCT065,0.00,0.00,VWS V14.01,2013-01-05 22:56:00,
2013-01-05 16:59:00,34.2,29.6,29.19,South,182,3.0,3.0,83,0.00,,SCT065,0.00,0.00,VWS V14.01,2013-01-05 22:59:00,
2013-01-05 17:01:00,34.2,29.6,29.19,East,85,0.0,4.0,83,0.00,,OVC060,0.00,0.00,VWS V14.01,2013-01-05 23:01:00,
2013-01-05 17:04:00,34.3,29.7,29.19,SSE,148,0.0,2.0,83,0.00,,OVC060,0.00,0.00,VWS V14.01,2013-01-05 23:04:00,
2013-01-05 17:06:00,34.3,29.7,29.19,SE,130,1.0,6.0,83,0.00,,OVC060,0.00,0.00,VWS V14.01,2013-01-05 23:06:00,
2013-01-05 17:07:00,34.3,29.7,29.19,East,94,1.0,3.0,83,0.00,,OVC060,0.00,0.00,VWS V14.01,2013-01-05 23:07:00,
2013-01-05 17:10:00,34.4,29.8,29.19,South,175,0.0,4.0,83,0.00,,OVC060,0.00,0.00,VWS V14.01,2013-01-05 23:10:00,
2013-01-05 17:12:00,34.4,29.5,29.19,ESE,113,1.0,2.0,82,0.00,,OVC060,0.00,0.00,VWS V14.01,2013-01-05 23:12:00,
2013-01-05 17:14:00,34.4,29.5,29.19,East,83,0.0,5.0,82,0.00,,OVC060,0.00,0.00,VWS V14.01,2013-01-05 23:14:00,
2013-01-05 17:16:00,34.4,29.5,29.19,SSE,168,1.0,1.0,82,0.00,,OVC060,0.00,0.00,VWS V14.01,2013-01-05 23:16:00,
2013-01-05 17:18:00,34.4,29.5,29.19,South,169,1.0,2.0,82,0.00,,OVC060,0.00,0.00,VWS V14.01,2013-01-05 23:18:00,
2013-01-05 17:21:00,34.4,29.5,29.19,NNE,33,5.0,6.0,82,0.00,,OVC060,0.00,0.00,VWS V14.01,2013-01-05 23:21:00,
2013-01-05 17:22:00,34.4,29.5,29.19,South,180,0.0,5.0,82,0.00,,OVC060,0.00,0.00,VWS V14.01,2013-01-05 23:22:00,
2013-01-05 17:24:00,34.4,29.5,29.19,SE,132,0.0,5.0,82,0.00,,OVC060,0.00,0.00,VWS V14.01,2013-01-05 23:24:00,
2013-01-05 17:27:00,34.4,29.5,29.19,ESE,111,4.0,4.0,82,0.00,,OVC060,0.00,0.00,VWS V14.01,2013-01-05 23:27:00,
2013-01-05 17:28:00,34.4,29.5,29.19,SE,146,1.0,6.0,82,0.00,,OVC060,0.00,0.00,VWS V14.01,2013-01-05 23:28:00,
2013-01-05 17:33:00,34.4,29.5,29.19,South,174,4.0,5.0,82,0.00,,OVC060,0.00,0.00,VWS V14.01,2013-01-05 23:33:00,
2013-01-05 17:34:00,34.4,29.5,29.19,SE,138,0.0,6.0,82,0.00,,OVC060,0.00,0.00,VWS V14.01,2013-01-05 23:34:00,
2013-01-05 17:37:00,34.4,29.5,29.19,SSE,153,1.0,7.0,82,0.00,,OVC060,0.00,0.00,VWS V14.01,2013-01-05 23:37:00,
2013-01-05 17:38:00,34.4,29.5,29.19,South,184,2.0,2.0,82,0.00,,OVC060,0.00,0.00,VWS V14.01,2013-01-05 23:38:00,
2013-01-05 17:40:00,34.4,29.5,29.19,SSE,153,0.0,2.0,82,0.00,,OVC060,0.00,0.00,VWS V14.01,2013-01-05 23:40:00,
2013-01-05 17:43:00,34.4,29.5,29.19,SSE,148,0.0,2.0,82,0.00,,OVC060,0.00,0.00,VWS V14.01,2013-01-05 23:43:00,
2013-01-05 17:44:00,34.4,29.5,29.19,SSE,168,2.0,5.0,82,0.00,,OVC060,0.00,0.00,VWS V14.01,2013-01-05 23:44:00,
2013-01-05 17:45:00,34.4,29.5,29.19,WNW,297,1.0,7.0,82,0.00,,OVC060,0.00,0.00,VWS V14.01,2013-01-05 23:45:00,
2013-01-05 17:46:00,34.4,29.5,29.19,SE,132,0.0,4.0,82,0.00,,OVC060,0.00,0.00,VWS V14.01,2013-01-05 23:46:00,
2013-01-05 17:50:00,34.4,29.2,29.19,SW,221,3.0,5.0,81,0.00,,OVC060,0.00,0.00,VWS V14.01,2013-01-05 23:50:00,
2013-01-05 17:52:00,34.4,29.2,29.19,ESE,115,2.0,3.0,81,0.00,,OVC060,0.00,0.00,VWS V14.01,2013-01-05 23:52:00,
2013-01-05 17:53:00,34.3,29.1,29.18,NNW,336,2.0,2.0,81,0.00,,OVC060,0.00,0.00,VWS V14.01,2013-01-05 23:53:00,
2013-01-05 17:54:00,34.4,29.2,29.19,SSE,161,0.0,4.0,81,0.00,,OVC060,0.00,0.00,VWS V14.01,2013-01-05 23:54:00,
2013-01-05 17:57:00,34.3,29.1,29.19,SSW,207,1.0,5.0,81,0.00,,OVC060,0.00,0.00,VWS V14.01,2013-01-05 23:57:00,
2013-01-05 17:58:00,34.3,29.1,29.19,SE,138,0.0,3.0,81,0.00,,OVC060,0.00,0.00,VWS V14.01,2013-01-05 23:58:00,
2013-01-05 18:00:00,34.3,29.1,29.19,ESE,116,4.0,4.0,81,0.00,,OVC060,0.00,0.00,VWS V14.01,2013-01-06 00:00:00,
2013-01-05 18:03:00,34.3,29.1,29.19,WSW,242,1.0,4.0,81,0.00,,OVC048,0.00,0.00,VWS V14.01,2013-01-06 00:03:00,
2013-01-05 18:05:00,34.3,29.1,29.19,ESE,114,0.0,3.0,81,0.00,,OVC048,0.00,0.00,VWS V14.01,2013-01-06 00:05:00,
2013-01-05 18:07:00,34.2,29.0,29.19,SW,220,0.0,4.0,81,0.00,,OVC048,0.00,0.00,VWS V14.01,2013-01-06 00:07:00,
2013-01-05 18:10:00,34.2,29.0,29.19,WSW,237,3.0,5.0,81,0.00,,OVC048,0.00,0.00,VWS V14.01,2013-01-06 00:10:00,
2013-01-05 18:11:00,34.2,29.0,29.19,ESE,117,0.0,4.0,81,0.00,,OVC048,0.00,0.00,VWS V14.01,2013-01-06 00:11:00,
2013-01-05 18:15:00,34.1,28.9,29.19,SE,128,0.0,5.0,81,0.00,,OVC048,0.00,0.00,VWS V14.01,2013-01-06 00:15:00,
2013-01-05 18:17:00,34.1,28.9,29.19,SW,218,2.0,4.0,81,0.00,,OVC048,0.00,0.00,VWS V14.01,2013-01-06 00:17:00,
2013-01-05 18:21:00,33.9,29.0,29.19,South,182,1.0,2.0,82,0.00,,OVC048,0.00,0.00,VWS V14.01,2013-01-06 00:21:00,
2013-01-05 18:22:00,33.9,29.0,29.20,SW,227,1.0,3.0,82,0.00,,OVC048,0.00,0.00,VWS V14.01,2013-01-06 00:22:00,
2013-01-05 18:23:00,33.9,29.0,29.20,WSW,244,0.0,4.0,82,0.00,,OVC048,0.00,0.00,VWS V14.01,2013-01-06 00:23:00,
2013-01-05 18:24:00,33.8,28.9,29.20,ESE,117,0.0,4.0,82,0.00,,OVC048,0.00,0.00,VWS V14.01,2013-01-06 00:24:00,
2013-01-05 18:27:00,33.7,29.1,29.20,ESE,117,0.0,4.0,83,0.00,,OVC048,0.00,0.00,VWS V14.01,2013-01-06 00:27:00,
2013-01-05 18:28:00,33.7,29.1,29.20,SSW,200,0.0,0.0,83,0.00,,OVC048,0.00,0.00,VWS V14.01,2013-01-06 00:28:00,
2013-01-05 18:29:00,33.7,29.1,29.20,ESE,120,0.0,2.0,83,0.00,,OVC048,0.00,0.00,VWS V14.01,2013-01-06 00:29:00,
2013-01-05 18:34:00,33.5,29.2,29.20,South,186,0.0,6.0,84,0.00,,OVC048,0.00,0.00,VWS V14.01,2013-01-06 00:34:00,
2013-01-05 18:35:00,33.5,28.9,29.20,South,182,4.0,5.0,83,0.00,,OVC048,0.00,0.00,VWS V14.01,2013-01-06 00:35:00,
2013-01-05 18:40:00,33.3,29.0,29.20,SSW,199,1.0,4.0,84,0.00,,OVC048,0.00,0.00,VWS V14.01,2013-01-06 00:40:00,
2013-01-05 18:41:00,33.3,29.0,29.20,SSW,208,1.0,4.0,84,0.00,,OVC048,0.00,0.00,VWS V14.01,2013-01-06 00:41:00,
2013-01-05 18:42:00,33.3,29.0,29.20,SSE,149,4.0,4.0,84,0.00,,OVC048,0.00,0.00,VWS V14.01,2013-01-06 00:42:00,
2013-01-05 18:45:00,33.2,29.2,29.20,SW,217,3.0,7.0,85,0.00,,OVC048,0.00,0.00,VWS V14.01,2013-01-06 00:45:00,
2013-01-05 18:46:00,33.1,29.1,29.20,SW,217,0.0,3.0,85,0.00,,OVC048,0.00,0.00,VWS V14.01,2013-01-06 00:46:00,
2013-01-05 18:47:00,33.1,29.1,29.20,SW,217,2.0,3.0,85,0.00,,OVC048,0.00,0.00,VWS V14.01,2013-01-06 00:47:00,
2013-01-05 18:49:00,33.0,29.0,29.20,SE,128,1.0,5.0,85,0.00,,OVC048,0.00,0.00,VWS V14.01,2013-01-06 00:49:00,
2013-01-05 18:51:00,33.0,29.0,29.20,South,190,0.0,1.0,85,0.00,,OVC048,0.00,0.00,VWS V14.01,2013-01-06 00:51:00,
2013-01-05 18:52:00,32.9,29.2,29.19,SW,234,3.0,4.0,86,0.00,,OVC048,0.00,0.00,VWS V14.01,2013-01-06 00:52:00,
2013-01-05 18:54:00,32.9,29.2,29.20,SW,236,5.0,6.0,86,0.00,,OVC048,0.00,0.00,VWS V14.01,2013-01-06 00:54:00,
2013-01-05 18:56:00,32.8,29.1,29.20,SW,232,2.0,9.0,86,0.00,,OVC048,0.00,0.00,VWS V14.01,2013-01-06 00:56:00,
2013-01-05 18:57:00,32.8,29.1,29.20,WSW,237,4.0,6.0,86,0.00,,OVC048,0.00,0.00,VWS V14.01,2013-01-06 00:57:00,
2013-01-05 18:59:00,32.8,29.1,29.20,WSW,242,0.0,4.0,86,0.00,,OVC048,0.00,0.00,VWS V14.01,2013-01-06 00:59:00,
2013-01-05 19:02:00,32.7,29.0,29.20,SW,232,0.0,4.0,86,0.00,,,0.00,0.00,VWS V14.01,2013-01-06 01:02:00,
2013-01-05 19:03:00,32.7,29.3,29.20,SW,219,1.0,3.0,87,0.00,,,0.00,0.00,VWS V14.01,2013-01-06 01:03:00,
2013-01-05 19:05:00,32.6,29.2,29.19,SSE,161,0.0,7.0,87,0.00,,,0.00,0.00,VWS V14.01,2013-01-06 01:05:00,
2013-01-05 19:08:00,32.6,29.2,29.19,SSE,165,0.0,2.0,87,0.00,,,0.00,0.00,VWS V14.01,2013-01-06 01:08:00,
2013-01-05 19:11:00,32.6,29.2,29.20,SSW,211,2.0,4.0,87,0.00,,,0.00,0.00,VWS V14.01,2013-01-06 01:11:00,
2013-01-05 19:12:00,32.6,29.2,29.20,WSW,252,0.0,3.0,87,0.00,,,0.00,0.00,VWS V14.01,2013-01-06 01:12:00,
2013-01-05 19:13:00,32.5,29.1,29.20,East,96,0.0,3.0,87,0.00,,,0.00,0.00,VWS V14.01,2013-01-06 01:13:00,
2013-01-05 19:16:00,32.5,29.1,29.20,SE,136,1.0,5.0,87,0.00,,,0.00,0.00,VWS V14.01,2013-01-06 01:16:00,
2013-01-05 19:17:00,32.5,29.1,29.19,SE,127,0.0,4.0,87,0.00,,,0.00,0.00,VWS V14.01,2013-01-06 01:17:00,
2013-01-05 19:19:00,32.5,29.1,29.19,WSW,250,0.0,2.0,87,0.00,,,0.00,0.00,VWS V14.01,2013-01-06 01:19:00,
2013-01-05 19:20:00,32.5,29.1,29.19,WSW,244,2.0,4.0,87,0.00,,,0.00,0.00,VWS V14.01,2013-01-06 01:20:00,
2013-01-05 19:22:00,32.5,29.4,29.19,SSE,159,0.0,2.0,88,0.00,,,0.00,0.00,VWS V14.01,2013-01-06 01:22:00,
2013-01-05 19:24:00,32.4,29.2,29.19,SSE,155,1.0,4.0,88,0.00,,,0.00,0.00,VWS V14.01,2013-01-06 01:24:00,
2013-01-05 19:25:00,32.4,29.2,29.19,South,188,1.0,4.0,88,0.00,,,0.00,0.00,VWS V14.01,2013-01-06 01:25:00,
2013-01-05 19:29:00,32.4,29.2,29.19,SSE,155,4.0,4.0,88,0.00,,,0.00,0.00,VWS V14.01,2013-01-06 01:29:00,
2013-01-05 19:31:00,32.4,29.2,29.19,South,178,0.0,4.0,88,0.00,,,0.00,0.00,VWS V14.01,2013-01-06 01:31:00,
2013-01-05 19:32:00,32.4,29.2,29.19,SSW,200,2.0,2.0,88,0.00,,,0.00,0.00,VWS V14.01,2013-01-06 01:32:00,
2013-01-05 19:34:00,32.4,29.2,29.19,SSW,202,0.0,4.0,88,0.00,,,0.00,0.00,VWS V14.01,2013-01-06 01:34:00,
2013-01-05 19:36:00,32.4,29.2,29.19,ESE,109,1.0,1.0,88,0.00,,,0.00,0.00,VWS V14.01,2013-01-06 01:36:00,
2013-01-05 19:39:00,32.3,29.1,29.20,SE,142,0.0,4.0,88,0.00,,,0.00,0.00,VWS V14.01,2013-01-06 01:39:00,
2013-01-05 19:41:00,32.3,29.1,29.19,South,175,0.0,4.0,88,0.00,,,0.00,0.00,VWS V14.01,2013-01-06 01:41:00,
2013-01-05 19:44:00,32.3,29.1,29.19,SW,214,2.0,4.0,88,0.00,,,0.00,0.00,VWS V14.01,2013-01-06 01:44:00,
2013-01-05 19:45:00,32.3,29.1,29.19,SSW,209,2.0,2.0,88,0.00,,,0.00,0.00,VWS V14.01,2013-01-06 01:45:00,
2013-01-05 19:47:00,32.3,29.1,29.19,South,186,1.0,4.0,88,0.00,,,0.00,0.00,VWS V14.01,2013-01-06 01:47:00,
2013-01-05 19:50:00,32.3,29.1,29.19,SSW,209,2.0,4.0,88,0.00,,,0.00,0.00,VWS V14.01,2013-01-06 01:50:00,
2013-01-05 19:52:00,32.3,29.1,29.19,South,185,1.0,4.0,88,0.00,,,0.00,0.00,VWS V14.01,2013-01-06 01:52:00,
2013-01-05 19:53:00,32.3,29.1,29.19,East,94,6.0,6.0,88,0.00,,,0.00,0.00,VWS V14.01,2013-01-06 01:53:00,
2013-01-05 19:54:00,32.3,29.4,29.19,SSE,148,4.0,6.0,89,0.00,,,0.00,0.00,VWS V14.01,2013-01-06 01:54:00,
2013-01-05 19:58:00,32.4,29.5,29.19,SSE,153,2.0,5.0,89,0.00,,,0.00,0.00,VWS V14.01,2013-01-06 01:58:00,
2013-01-05 19:59:00,32.4,29.5,29.19,ESE,107,0.0,6.0,89,0.00,,,0.00,0.00,VWS V14.01,2013-01-06 01:59:00,
2013-01-05 20:03:00,32.4,29.5,29.18,SSE,153,1.0,1.0,89,0.00,,,0.00,0.00,VWS V14.01,2013-01-06 02:03:00,
2013-01-05 20:05:00,32.4,29.5,29.18,ESE,114,0.0,1.0,89,0.00,,,0.00,0.00,VWS V14.01,2013-01-06 02:05:00,
2013-01-05 20:06:00,32.4,29.5,29.18,SSE,155,0.0,2.0,89,0.00,,,0.00,0.00,VWS V14.01,2013-01-06 02:06:00,
2013-01-05 20:09:00,32.5,29.6,29.18,South,169,1.0,2.0,89,0.00,,,0.00,0.00,VWS V14.01,2013-01-06 02:09:00,
2013-01-05 20:14:00,32.5,29.6,29.18,SE,132,0.0,0.0,89,0.00,,,0.00,0.00,VWS V14.01,2013-01-06 02:14:00,
2013-01-05 20:16:00,32.5,29.6,29.18,WSW,242,0.0,5.0,89,0.00,,,0.00,0.00,VWS V14.01,2013-01-06 02:16:00,
2013-01-05 20:19:00,32.5,29.6,29.18,West,259,0.0,4.0,89,0.00,,,0.00,0.00,VWS V14.01,2013-01-06 02:19:00,
2013-01-05 20:20:00,32.5,29.6,29.18,SSE,153,0.0,5.0,89,0.00,,,0.00,0.00,VWS V14.01,2013-01-06 02:20:00,
2013-01-05 20:23:00,32.6,29.7,29.18,ESE,117,1.0,2.0,89,0.00,,,0.00,0.00,VWS V14.01,2013-01-06 02:23:00,
2013-01-05 20:24:00,32.6,29.7,29.18,ESE,117,0.0,1.0,89,0.00,,,0.00,0.00,VWS V14.01,2013-01-06 02:24:00,
2013-01-05 20:25:00,32.6,29.7,29.18,SW,227,0.0,2.0,89,0.00,,,0.00,0.00,VWS V14.01,2013-01-06 02:25:00,
2013-01-05 20:28:00,32.6,29.7,29.18,ESE,115,0.0,4.0,89,0.00,,,0.00,0.00,VWS V14.01,2013-01-06 02:28:00,
2013-01-05 20:29:00,32.6,29.7,29.18,SW,236,1.0,10.0,89,0.00,,,0.00,0.00,VWS V14.01,2013-01-06 02:29:00,
2013-01-05 20:31:00,32.6,29.7,29.18,WSW,242,2.0,3.0,89,0.00,,,0.00,0.00,VWS V14.01,2013-01-06 02:31:00,
2013-01-05 20:33:00,32.6,29.7,29.18,ESE,109,0.0,1.0,89,0.00,,,0.00,0.00,VWS V14.01,2013-01-06 02:33:00,
2013-01-05 20:35:00,32.6,29.7,29.18,ESE,111,1.0,2.0,89,0.00,,,0.00,0.00,VWS V14.01,2013-01-06 02:35:00,
2013-01-05 20:36:00,32.6,29.7,29.18,ESE,110,0.0,1.0,89,0.00,,,0.00,0.00,VWS V14.01,2013-01-06 02:36:00,
2013-01-05 20:38:00,32.6,29.7,29.18,SSE,157,0.0,5.0,89,0.00,,,0.00,0.00,VWS V14.01,2013-01-06 02:38:00,
2013-01-05 20:41:00,32.6,29.7,29.18,SSE,167,0.0,3.0,89,0.00,,,0.00,0.00,VWS V14.01,2013-01-06 02:41:00,
2013-01-05 20:44:00,32.7,29.8,29.17,SSE,150,0.0,0.0,89,0.00,,,0.00,0.00,VWS V14.01,2013-01-06 02:44:00,
2013-01-05 20:45:00,32.7,29.8,29.17,SSW,195,0.0,4.0,89,0.00,,,0.00,0.00,VWS V14.01,2013-01-06 02:45:00,
2013-01-05 20:48:00,32.7,29.8,29.17,SW,222,2.0,4.0,89,0.00,,,0.00,0.00,VWS V14.01,2013-01-06 02:48:00,
2013-01-05 20:49:00,32.7,29.8,29.17,West,273,2.0,4.0,89,0.00,,,0.00,0.00,VWS V14.01,2013-01-06 02:49:00,
2013-01-05 20:52:00,32.8,29.9,29.17,WSW,243,1.0,4.0,89,0.00,,,0.00,0.00,VWS V14.01,2013-01-06 02:52:00,
2013-01-05 20:55:00,32.8,29.9,29.17,South,169,0.0,5.0,89,0.00,,,0.00,0.00,VWS V14.01,2013-01-06 02:55:00,
2013-01-05 20:56:00,32.8,29.9,29.17,South,169,0.0,1.0,89,0.00,,,0.00,0.00,VWS V14.01,2013-01-06 02:56:00,
2013-01-05 20:58:00,32.8,29.9,29.17,ESE,120,0.0,4.0,89,0.00,,,0.00,0.00,VWS V14.01,2013-01-06 02:58:00,
2013-01-05 21:02:00,32.8,29.9,29.17,West,264,0.0,5.0,89,0.00,,,0.00,0.00,VWS V14.01,2013-01-06 03:02:00,
2013-01-05 21:03:00,32.8,29.9,29.17,West,263,3.0,3.0,89,0.00,,,0.00,0.00,VWS V14.01,2013-01-06 03:03:00,
2013-01-05 21:04:00,32.9,30.0,29.17,SW,234,0.0,9.0,89,0.00,,,0.00,0.00,VWS V14.01,2013-01-06 03:04:00,
2013-01-05 21:08:00,32.9,30.0,29.17,South,171,0.0,4.0,89,0.00,,,0.00,0.00,VWS V14.01,2013-01-06 03:08:00,
2013-01-05 21:11:00,32.9,30.0,29.17,WSW,252,0.0,3.0,89,0.00,,,0.00,0.00,VWS V14.01,2013-01-06 03:11:00,
2013-01-05 21:14:00,32.9,30.0,29.17,SW,214,0.0,2.0,89,0.00,,,0.00,0.00,VWS V14.01,2013-01-06 03:14:00,
2013-01-05 21:15:00,32.9,30.0,29.17,SW,215,2.0,3.0,89,0.00,,,0.00,0.00,VWS V14.01,2013-01-06 03:15:00,
2013-01-05 21:17:00,32.9,30.0,29.17,SW,220,1.0,3.0,89,0.00,,,0.00,0.00,VWS V14.01,2013-01-06 03:17:00,
2013-01-05 21:19:00,32.9,30.0,29.16,SW,220,1.0,3.0,89,0.00,,,0.00,0.00,VWS V14.01,2013-01-06 03:19:00,
2013-01-05 21:20:00,33.0,30.1,29.17,SSE,161,0.0,4.0,89,0.00,,,0.00,0.00,VWS V14.01,2013-01-06 03:20:00,
2013-01-05 21:22:00,33.0,30.1,29.17,SW,226,0.0,3.0,89,0.00,,,0.00,0.00,VWS V14.01,2013-01-06 03:22:00,
2013-01-05 21:24:00,33.0,30.1,29.16,SSW,206,3.0,4.0,89,0.00,,,0.00,0.00,VWS V14.01,2013-01-06 03:24:00,
2013-01-05 21:27:00,33.0,30.1,29.16,South,182,1.0,6.0,89,0.00,,,0.00,0.00,VWS V14.01,2013-01-06 03:27:00,
2013-01-05 21:31:00,33.0,30.1,29.16,SW,214,1.0,2.0,89,0.00,,,0.00,0.00,VWS V14.01,2013-01-06 03:31:00,
2013-01-05 21:34:00,33.1,30.2,29.16,SW,233,0.0,6.0,89,0.00,,,0.00,0.00,VWS V14.01,2013-01-06 03:34:00,
2013-01-05 21:35:00,33.2,30.3,29.16,SW,234,0.0,3.0,89,0.00,,,0.00,0.00,VWS V14.01,2013-01-06 03:35:00,
2013-01-05 21:36:00,33.2,30.3,29.16,NE,48,0.0,2.0,89,0.00,,,0.00,0.00,VWS V14.01,2013-01-06 03:36:00,
2013-01-05 21:39:00,33.2,30.3,29.16,WSW,247,0.0,4.0,89,0.00,,,0.00,0.00,VWS V14.01,2013-01-06 03:39:00,
2013-01-05 21:41:00,33.3,30.1,29.16,WSW,250,0.0,2.0,88,0.00,,,0.00,0.00,VWS V14.01,2013-01-06 03:41:00,
2013-01-05 21:42:00,33.3,30.1,29.16,WSW,244,1.0,4.0,88,0.00,,,0.00,0.00,VWS V14.01,2013-01-06 03:42:00,
2013-01-05 21:46:00,33.3,30.1,29.16,WSW,242,2.0,5.0,88,0.00,,,0.00,0.00,VWS V14.01,2013-01-06 03:46:00,
2013-01-05 21:47:00,33.4,30.2,29.16,WSW,242,0.0,5.0,88,0.00,,,0.00,0.00,VWS V14.01,2013-01-06 03:47:00,
2013-01-05 21:50:00,33.4,30.2,29.15,SE,130,0.0,1.0,88,0.00,,,0.00,0.00,VWS V14.01,2013-01-06 03:50:00,
2013-01-05 21:52:00,33.4,30.2,29.15,SE,130,0.0,1.0,88,0.00,,,0.00,0.00,VWS V14.01,2013-01-06 03:52:00,
2013-01-05 21:54:00,33.4,30.0,29.15,SE,132,0.0,0.0,87,0.00,,,0.00,0.00,VWS V14.01,2013-01-06 03:54:00,
2013-01-05 21:58:00,33.3,29.9,29.15,SSE,164,2.0,2.0,87,0.00,,,0.00,0.00,VWS V14.01,2013-01-06 03:58:00,
2013-01-05 21:59:00,33.3,29.9,29.15,SW,218,3.0,4.0,87,0.00,,,0.00,0.00,VWS V14.01,2013-01-06 03:59:00,
2013-01-05 22:00:00,33.3,29.9,29.15,West,263,0.0,3.0,87,0.00,,,0.00,0.00,VWS V14.01,2013-01-06 04:00:00,
2013-01-05 22:04:00,33.3,29.9,29.15,SSE,161,1.0,4.0,87,0.00,,OVC036,0.00,0.00,VWS V14.01,2013-01-06 04:04:00,
2013-01-05 22:05:00,33.3,29.9,29.15,SW,236,1.0,2.0,87,0.00,,OVC036,0.00,0.00,VWS V14.01,2013-01-06 04:05:00,
2013-01-05 22:06:00,33.3,29.9,29.15,WSW,244,0.0,5.0,87,0.00,,OVC036,0.00,0.00,VWS V14.01,2013-01-06 04:06:00,
2013-01-05 22:10:00,33.4,30.0,29.15,SW,222,0.0,0.0,87,0.00,,OVC036,0.00,0.00,VWS V14.01,2013-01-06 04:10:00,
2013-01-05 22:11:00,33.5,30.0,29.15,SW,222,0.0,0.0,87,0.00,,OVC036,0.00,0.00,VWS V14.01,2013-01-06 04:11:00,
2013-01-05 22:13:00,33.5,29.8,29.14,SSE,159,0.0,3.0,86,0.00,,OVC036,0.00,0.00,VWS V14.01,2013-01-06 04:13:00,
2013-01-05 22:17:00,33.5,29.8,29.14,SSW,207,0.0,1.0,86,0.00,,OVC036,0.00,0.00,VWS V14.01,2013-01-06 04:17:00,
2013-01-05 22:18:00,33.5,29.8,29.14,WSW,238,0.0,3.0,86,0.00,,OVC036,0.00,0.00,VWS V14.01,2013-01-06 04:18:00,
2013-01-05 22:19:00,33.5,29.8,29.14,SW,232,3.0,6.0,86,0.00,,OVC036,0.00,0.00,VWS V14.01,2013-01-06 04:19:00,
2013-01-05 22:22:00,33.6,29.9,29.14,SE,142,0.0,7.0,86,0.00,,OVC036,0.00,0.00,VWS V14.01,2013-01-06 04:22:00,
2013-01-05 22:25:00,33.6,29.9,29.14,SSW,211,0.0,2.0,86,0.00,,OVC036,0.00,0.00,VWS V14.01,2013-01-06 04:25:00,
2013-01-05 22:27:00,33.7,29.7,29.14,SW,233,2.0,5.0,85,0.00,,OVC036,0.00,0.00,VWS V14.01,2013-01-06 04:27:00,
2013-01-05 22:28:00,33.7,29.7,29.14,SSE,157,0.0,2.0,85,0.00,,OVC036,0.00,0.00,VWS V14.01,2013-01-06 04:28:00,
2013-01-05 22:33:00,33.7,29.7,29.14,SSW,203,0.0,1.0,85,0.00,,OVC036,0.00,0.00,VWS V14.01,2013-01-06 04:33:00,
2013-01-05 22:34:00,33.7,29.7,29.13,SE,136,1.0,6.0,85,0.00,,OVC036,0.00,0.00,VWS V14.01,2013-01-06 04:34:00,
2013-01-05 22:36:00,33.8,29.8,29.13,SW,222,2.0,4.0,85,0.00,,OVC036,0.00,0.00,VWS V14.01,2013-01-06 04:36:00,
2013-01-05 22:39:00,33.8,29.8,29.13,South,176,0.0,4.0,85,0.00,,OVC036,0.00,0.00,VWS V14.01,2013-01-06 04:39:00,
2013-01-05 22:41:00,33.9,29.9,29.13,SW,234,1.0,4.0,85,0.00,,OVC036,0.00,0.00,VWS V14.01,2013-01-06 04:41:00,
2013-01-05 22:43:00,33.9,29.6,29.13,West,259,1.0,2.0,84,0.00,,OVC036,0.00,0.00,VWS V14.01,2013-01-06 04:43:00,
2013-01-05 22:45:00,34.0,29.7,29.13,SE,130,4.0,4.0,84,0.00,,OVC036,0.00,0.00,VWS V14.01,2013-01-06 04:45:00,
2013-01-05 22:47:00,33.9,29.6,29.13,ESE,105,0.0,1.0,84,0.00,,OVC036,0.00,0.00,VWS V14.01,2013-01-06 04:47:00,
2013-01-05 22:48:00,33.9,29.6,29.13,WSW,246,1.0,4.0,84,0.00,,OVC036,0.00,0.00,VWS V14.01,2013-01-06 04:48:00,
2013-01-05 22:50:00,34.0,29.7,29.13,South,177,0.0,5.0,84,0.00,,OVC036,0.00,0.00,VWS V14.01,2013-01-06 04:50:00,
2013-01-05 22:53:00,33.9,29.6,29.13,SW,218,0.0,3.0,84,0.00,,OVC036,0.00,0.00,VWS V14.01,2013-01-06 04:53:00,
2013-01-05 22:56:00,34.0,29.7,29.13,WSW,251,0.0,2.0,84,0.00,,OVC036,0.00,0.00,VWS V14.01,2013-01-06 04:56:00,
2013-01-05 22:59:00,33.9,29.6,29.13,WSW,247,0.0,1.0,84,0.00,,OVC036,0.00,0.00,VWS V14.01,2013-01-06 04:59:00,
2013-01-05 23:00:00,33.9,29.6,29.13,WSW,247,0.0,1.0,84,0.00,,OVC036,0.00,0.00,VWS V14.01,2013-01-06 05:00:00,
2013-01-05 23:01:00,33.9,29.6,29.14,WSW,247,2.0,2.0,84,0.00,,OVC034,0.00,0.00,VWS V14.01,2013-01-06 05:01:00,
2013-01-05 23:02:00,33.9,29.6,29.13,WSW,247,0.0,2.0,84,0.00,,OVC034,0.00,0.00,VWS V14.01,2013-01-06 05:02:00,
2013-01-05 23:07:00,34.0,29.7,29.13,SW,224,1.0,4.0,84,0.00,,OVC034,0.00,0.00,VWS V14.01,2013-01-06 05:07:00,
2013-01-05 23:10:00,34.0,29.7,29.13,WSW,241,0.0,3.0,84,0.00,,OVC034,0.00,0.00,VWS V14.01,2013-01-06 05:10:00,
2013-01-05 23:13:00,34.0,29.7,29.13,SW,220,0.0,3.0,84,0.00,,OVC034,0.00,0.00,VWS V14.01,2013-01-06 05:13:00,
2013-01-05 23:14:00,34.0,29.7,29.12,SW,229,1.0,1.0,84,0.00,,OVC034,0.00,0.00,VWS V14.01,2013-01-06 05:14:00,
2013-01-05 23:15:00,34.0,29.7,29.12,SW,236,0.0,3.0,84,0.00,,OVC034,0.00,0.00,VWS V14.01,2013-01-06 05:15:00,
2013-01-05 23:20:00,34.1,29.8,29.12,South,170,0.0,1.0,84,0.00,,OVC034,0.00,0.00,VWS V14.01,2013-01-06 05:20:00,
2013-01-05 23:21:00,34.1,29.5,29.12,WSW,238,0.0,1.0,83,0.00,,OVC034,0.00,0.00,VWS V14.01,2013-01-06 05:21:00,
2013-01-05 23:24:00,34.1,29.5,29.12,SSE,165,2.0,2.0,83,0.00,,OVC034,0.00,0.00,VWS V14.01,2013-01-06 05:24:00,
2013-01-05 23:28:00,34.1,29.8,29.12,SE,142,0.0,2.0,84,0.00,,OVC034,0.00,0.00,VWS V14.01,2013-01-06 05:28:00,
2013-01-05 23:30:00,34.1,29.8,29.12,SSE,148,1.0,2.0,84,0.00,,OVC034,0.00,0.00,VWS V14.01,2013-01-06 05:30:00,
2013-01-05 23:31:00,34.1,29.8,29.12,SSW,213,3.0,3.0,84,0.00,,OVC034,0.00,0.00,VWS V14.01,2013-01-06 05:31:00,
2013-01-05 23:33:00,34.1,29.8,29.12,SW,221,0.0,4.0,84,0.00,,OVC034,0.00,0.00,VWS V14.01,2013-01-06 05:33:00,
2013-01-05 23:35:00,34.1,29.5,29.12,SW,230,4.0,5.0,83,0.00,,OVC034,0.00,0.00,VWS V14.01,2013-01-06 05:35:00,
2013-01-05 23:37:00,34.1,29.5,29.12,SW,215,1.0,5.0,83,0.00,,OVC034,0.00,0.00,VWS V14.01,2013-01-06 05:37:00,
2013-01-05 23:38:00,34.1,29.5,29.12,SW,215,0.0,1.0,83,0.00,,OVC034,0.00,0.00,VWS V14.01,2013-01-06 05:38:00,
2013-01-05 23:40:00,34.1,29.5,29.11,SW,218,0.0,3.0,83,0.00,,OVC034,0.00,0.00,VWS V14.01,2013-01-06 05:40:00,
2013-01-05 23:43:00,34.1,29.5,29.11,SW,225,1.0,1.0,83,0.00,,OVC034,0.00,0.00,VWS V14.01,2013-01-06 05:43:00,
2013-01-05 23:46:00,34.1,29.5,29.11,SE,141,1.0,1.0,83,0.00,,OVC034,0.00,0.00,VWS V14.01,2013-01-06 05:46:00,
2013-01-05 23:47:00,34.1,29.5,29.11,SW,215,3.0,3.0,83,0.00,,OVC034,0.00,0.00,VWS V14.01,2013-01-06 05:47:00,
2013-01-05 23:48:00,34.1,29.5,29.11,SE,140,2.0,3.0,83,0.00,,OVC034,0.00,0.00,VWS V14.01,2013-01-06 05:48:00,
2013-01-05 23:51:00,34.0,29.4,29.11,ESE,113,0.0,1.0,83,0.00,,OVC034,0.00,0.00,VWS V14.01,2013-01-06 05:51:00,
2013-01-05 23:53:00,34.0,29.7,29.11,SSE,161,0.0,3.0,84,0.00,,OVC034,0.00,0.00,VWS V14.01,2013-01-06 05:53:00,
2013-01-05 23:54:00,34.0,29.7,29.11,SW,229,0.0,4.0,84,0.00,,OVC034,0.00,0.00,VWS V14.01,2013-01-06 05:54:00,
2013-01-05 23:57:00,34.0,29.7,29.11,South,171,1.0,3.0,84,0.00,,OVC034,0.00,0.00,VWS V14.01,2013-01-06 05:57:00,
2013-01-05 23:59:00,34.0,29.7,29.11,South,174,0.0,3.0,84,0.00,,OVC034,0.00,0.00,VWS V14.01,2013-01-06 05:59:00,